Time,TemperatureF,DewpointF,PressureIn,WindDirection,WindDirectionDegrees,WindSpeedMPH,WindSpeedGustMPH,Humidity,HourlyPrecipIn,Conditions,Clouds,dailyrainin,SoftwareType,DateUTC
2013-01-03 00:00:00,15.5,8.1,29.33,WSW,246,6.0,12.0,72,0.00,,,0.00,WUHU216DAVISVP2,2013-01-03 05:00:00,
2013-01-03 00:01:00,15.5,8.1,29.33,WSW,246,2.0,12.0,72,0.00,,,0.00,WUHU216DAVISVP2,2013-01-03 05:01:00,
2013-01-03 00:05:00,15.5,8.4,29.33,SW,236,5.0,12.0,73,0.00,,,0.00,WUHU216DAVISVP2,2013-01-03 05:05:00,
2013-01-03 00:06:00,15.5,8.4,29.33,WSW,237,4.0,12.0,73,0.00,,,0.00,WUHU216DAVISVP2,2013-01-03 05:06:00,
2013-01-03 00:11:00,15.5,8.4,29.33,SW,233,5.0,14.0,73,0.00,,,0.00,WUHU216DAVISVP2,2013-01-03 05:11:00,
2013-01-03 00:16:00,15.4,8.3,29.33,SSW,193,6.0,14.0,73,0.00,,,0.00,WUHU216DAVISVP2,2013-01-03 05:16:00,
2013-01-03 00:21:00,15.4,8.3,29.32,WSW,241,13.0,14.0,73,0.00,,,0.00,WUHU216DAVISVP2,2013-01-03 05:21:00,
2013-01-03 00:26:00,15.3,8.2,29.33,SW,230,2.0,14.0,73,0.00,,,0.00,WUHU216DAVISVP2,2013-01-03 05:26:00,
2013-01-03 00:27:00,15.3,8.5,29.33,SW,219,4.0,14.0,74,0.00,,,0.00,WUHU216DAVISVP2,2013-01-03 05:27:00,
2013-01-03 00:31:00,15.3,8.5,29.32,SW,219,2.0,13.0,74,0.00,,,0.00,WUHU216DAVISVP2,2013-01-03 05:31:00,
2013-01-03 00:32:00,15.3,8.5,29.32,SSW,213,6.0,13.0,74,0.00,,,0.00,WUHU216DAVISVP2,2013-01-03 05:32:00,
2013-01-03 00:36:00,15.2,8.4,29.32,SW,233,5.0,13.0,74,0.00,,,0.00,WUHU216DAVISVP2,2013-01-03 05:36:00,
2013-01-03 00:37:00,15.2,8.4,29.32,WSW,246,0.0,13.0,74,0.00,,,0.00,WUHU216DAVISVP2,2013-01-03 05:37:00,
2013-01-03 00:42:00,15.2,8.4,29.32,WSW,246,6.0,12.0,74,0.00,,,0.00,WUHU216DAVISVP2,2013-01-03 05:42:00,
2013-01-03 00:47:00,15.2,8.4,29.32,SW,224,1.0,13.0,74,0.00,,,0.00,WUHU216DAVISVP2,2013-01-03 05:47:00,
2013-01-03 00:52:00,15.3,8.5,29.32,SW,214,3.0,13.0,74,0.00,,,0.00,WUHU216DAVISVP2,2013-01-03 05:52:00,
2013-01-03 00:53:00,15.3,8.5,29.32,SW,218,10.0,13.0,74,0.00,,,0.00,WUHU216DAVISVP2,2013-01-03 05:53:00,
2013-01-03 00:57:00,15.4,8.6,29.32,South,181,5.0,14.0,74,0.00,,,0.00,WUHU216DAVISVP2,2013-01-03 05:57:00,
2013-01-03 01:02:00,15.4,8.6,29.32,SSW,204,8.0,21.0,74,0.00,,,0.00,WUHU216DAVISVP2,2013-01-03 06:02:00,
2013-01-03 01:03:00,15.5,8.7,29.32,SW,218,5.0,21.0,74,0.00,,,0.00,WUHU216DAVISVP2,2013-01-03 06:03:00,
2013-01-03 01:07:00,15.5,8.7,29.32,SW,233,11.0,21.0,74,0.00,,,0.00,WUHU216DAVISVP2,2013-01-03 06:07:00,
2013-01-03 01:08:00,15.5,8.7,29.32,SW,231,6.0,21.0,74,0.00,,,0.00,WUHU216DAVISVP2,2013-01-03 06:08:00,
2013-01-03 01:12:00,15.5,8.7,29.31,SW,236,8.0,21.0,74,0.00,,,0.00,WUHU216DAVISVP2,2013-01-03 06:12:00,
2013-01-03 01:13:00,15.5,8.7,29.32,WSW,243,7.0,21.0,74,0.00,,,0.00,WUHU216DAVISVP2,2013-01-03 06:13:00,
2013-01-03 01:17:00,15.6,8.8,29.31,SSW,208,5.0,21.0,74,0.00,,,0.00,WUHU216DAVISVP2,2013-01-03 06:17:00,
2013-01-03 01:18:00,15.6,8.8,29.31,WSW,243,8.0,14.0,74,0.00,,,0.00,WUHU216DAVISVP2,2013-01-03 06:18:00,
2013-01-03 01:22:00,15.6,8.8,29.31,SW,220,2.0,14.0,74,0.00,,,0.00,WUHU216DAVISVP2,2013-01-03 06:22:00,
2013-01-03 01:23:00,15.6,8.8,29.31,SW,216,7.0,14.0,74,0.00,,,0.00,WUHU216DAVISVP2,2013-01-03 06:23:00,
2013-01-03 01:27:00,15.7,8.9,29.31,SW,231,5.0,14.0,74,0.00,,,0.00,WUHU216DAVISVP2,2013-01-03 06:27:00,
2013-01-03 01:28:00,15.7,8.9,29.31,SW,231,5.0,14.0,74,0.00,,,0.00,WUHU216DAVISVP2,2013-01-03 06:28:00,
2013-01-03 01:33:00,15.7,8.9,29.31,SSW,197,7.0,14.0,74,0.00,,,0.00,WUHU216DAVISVP2,2013-01-03 06:33:00,
2013-01-03 01:34:00,15.7,8.9,29.31,WSW,243,9.0,14.0,74,0.00,,,0.00,WUHU216DAVISVP2,2013-01-03 06:34:00,
2013-01-03 01:38:00,15.8,9.0,29.31,SW,219,8.0,14.0,74,0.00,,,0.00,WUHU216DAVISVP2,2013-01-03 06:38:00,
2013-01-03 01:39:00,15.8,9.0,29.31,WSW,237,9.0,14.0,74,0.00,,,0.00,WUHU216DAVISVP2,2013-01-03 06:39:00,
2013-01-03 01:43:00,15.9,9.1,29.31,West,261,6.0,14.0,74,0.00,,,0.00,WUHU216DAVISVP2,2013-01-03 06:43:00,
2013-01-03 01:44:00,15.9,9.1,29.32,West,277,7.0,14.0,74,0.00,,,0.00,WUHU216DAVISVP2,2013-01-03 06:44:00,
2013-01-03 01:48:00,15.8,9.0,29.32,West,261,6.0,14.0,74,0.00,,,0.00,WUHU216DAVISVP2,2013-01-03 06:48:00,
2013-01-03 01:49:00,15.8,9.0,29.32,WSW,256,4.0,14.0,74,0.00,,,0.00,WUHU216DAVISVP2,2013-01-03 06:49:00,
2013-01-03 01:53:00,15.8,9.0,29.32,WSW,253,7.0,14.0,74,0.00,,,0.00,WUHU216DAVISVP2,2013-01-03 06:53:00,
2013-01-03 01:54:00,15.8,9.0,29.32,WSW,243,11.0,14.0,74,0.00,,,0.00,WUHU216DAVISVP2,2013-01-03 06:54:00,
2013-01-03 01:58:00,15.8,9.0,29.32,SW,232,6.0,14.0,74,0.00,,,0.00,WUHU216DAVISVP2,2013-01-03 06:58:00,
2013-01-03 01:59:00,15.8,9.0,29.32,WSW,251,7.0,14.0,74,0.00,,,0.00,WUHU216DAVISVP2,2013-01-03 06:59:00,
2013-01-03 02:03:00,15.8,9.0,29.32,WSW,243,5.0,12.0,74,0.00,,,0.00,WUHU216DAVISVP2,2013-01-03 07:03:00,
2013-01-03 02:04:00,15.8,9.0,29.32,WSW,243,3.0,12.0,74,0.00,,,0.00,WUHU216DAVISVP2,2013-01-03 07:04:00,
2013-01-03 02:08:00,15.7,8.9,29.32,WSW,240,6.0,12.0,74,0.00,,,0.00,WUHU216DAVISVP2,2013-01-03 07:08:00,
2013-01-03 02:09:00,15.7,8.9,29.32,WSW,238,2.0,11.0,74,0.00,,,0.00,WUHU216DAVISVP2,2013-01-03 07:09:00,
2013-01-03 02:13:00,15.8,9.0,29.32,SSW,205,2.0,11.0,74,0.00,,,0.00,WUHU216DAVISVP2,2013-01-03 07:13:00,
2013-01-03 02:14:00,15.8,9.0,29.32,SW,233,2.0,11.0,74,0.00,,,0.00,WUHU216DAVISVP2,2013-01-03 07:14:00,
2013-01-03 02:18:00,15.8,9.0,29.32,SW,225,2.0,11.0,74,0.00,,,0.00,WUHU216DAVISVP2,2013-01-03 07:18:00,
2013-01-03 02:19:00,15.8,9.0,29.32,SW,224,4.0,11.0,74,0.00,,,0.00,WUHU216DAVISVP2,2013-01-03 07:19:00,
2013-01-03 02:23:00,15.7,8.9,29.32,SW,233,4.0,9.0,74,0.00,,,0.00,WUHU216DAVISVP2,2013-01-03 07:23:00,
2013-01-03 02:24:00,15.7,8.9,29.32,SW,222,4.0,9.0,74,0.00,,,0.00,WUHU216DAVISVP2,2013-01-03 07:24:00,
2013-01-03 02:28:00,15.6,8.8,29.32,SW,224,1.0,11.0,74,0.00,,,0.00,WUHU216DAVISVP2,2013-01-03 07:28:00,
2013-01-03 02:29:00,15.6,8.8,29.32,SW,221,3.0,11.0,74,0.00,,,0.00,WUHU216DAVISVP2,2013-01-03 07:29:00,
2013-01-03 02:33:00,15.5,8.7,29.31,WSW,241,6.0,11.0,74,0.00,,,0.00,WUHU216DAVISVP2,2013-01-03 07:33:00,
2013-01-03 02:34:00,15.4,8.6,29.31,SSW,197,5.0,11.0,74,0.00,,,0.00,WUHU216DAVISVP2,2013-01-03 07:34:00,
2013-01-03 02:35:00,15.4,8.6,29.31,SW,218,2.0,11.0,74,0.00,,,0.00,WUHU216DAVISVP2,2013-01-03 07:35:00,
2013-01-03 02:39:00,15.3,8.5,29.31,SW,214,2.0,11.0,74,0.00,,,0.00,WUHU216DAVISVP2,2013-01-03 07:39:00,
2013-01-03 02:40:00,15.3,8.5,29.31,SSW,200,2.0,11.0,74,0.00,,,0.00,WUHU216DAVISVP2,2013-01-03 07:40:00,
2013-01-03 02:44:00,15.4,8.6,29.31,SW,221,0.0,11.0,74,0.00,,,0.00,WUHU216DAVISVP2,2013-01-03 07:44:00,
2013-01-03 02:45:00,15.4,8.6,29.32,SSW,208,0.0,11.0,74,0.00,,,0.00,WUHU216DAVISVP2,2013-01-03 07:45:00,
2013-01-03 02:49:00,15.4,8.6,29.31,SSW,206,5.0,11.0,74,0.00,,,0.00,WUHU216DAVISVP2,2013-01-03 07:49:00,
2013-01-03 02:50:00,15.5,8.7,29.31,SSW,207,6.0,11.0,74,0.00,,,0.00,WUHU216DAVISVP2,2013-01-03 07:50:00,
2013-01-03 02:54:00,15.6,8.8,29.31,SSW,207,5.0,11.0,74,0.00,,,0.00,WUHU216DAVISVP2,2013-01-03 07:54:00,
2013-01-03 02:55:00,15.6,8.8,29.31,South,191,7.0,11.0,74,0.00,,,0.00,WUHU216DAVISVP2,2013-01-03 07:55:00,
2013-01-03 02:59:00,15.6,8.5,29.31,SSW,206,3.0,11.0,73,0.00,,,0.00,WUHU216DAVISVP2,2013-01-03 07:59:00,
2013-01-03 03:00:00,15.6,8.5,29.31,SW,222,6.0,11.0,73,0.00,,,0.00,WUHU216DAVISVP2,2013-01-03 08:00:00,
2013-01-03 03:04:00,15.6,8.5,29.31,SW,236,6.0,11.0,73,0.00,,,0.00,WUHU216DAVISVP2,2013-01-03 08:04:00,
2013-01-03 03:05:00,15.6,8.5,29.31,SSW,195,4.0,11.0,73,0.00,,,0.00,WUHU216DAVISVP2,2013-01-03 08:05:00,
2013-01-03 03:06:00,15.6,8.5,29.31,SSW,212,2.0,11.0,73,0.00,,,0.00,WUHU216DAVISVP2,2013-01-03 08:06:00,
2013-01-03 03:09:00,15.5,8.4,29.31,SW,223,3.0,11.0,73,0.00,,,0.00,WUHU216DAVISVP2,2013-01-03 08:09:00,
2013-01-03 03:10:00,15.5,8.4,29.31,SW,224,5.0,11.0,73,0.00,,,0.00,WUHU216DAVISVP2,2013-01-03 08:10:00,
2013-01-03 03:11:00,15.6,8.5,29.31,WSW,245,5.0,11.0,73,0.00,,,0.00,WUHU216DAVISVP2,2013-01-03 08:11:00,
2013-01-03 03:14:00,15.6,8.5,29.31,SW,222,0.0,13.0,73,0.00,,,0.00,WUHU216DAVISVP2,2013-01-03 08:14:00,
2013-01-03 03:15:00,15.6,8.5,29.31,SW,218,2.0,13.0,73,0.00,,,0.00,WUHU216DAVISVP2,2013-01-03 08:15:00,
2013-01-03 03:16:00,15.6,8.5,29.31,SSW,208,3.0,13.0,73,0.00,,,0.00,WUHU216DAVISVP2,2013-01-03 08:16:00,
2013-01-03 03:19:00,15.6,8.5,29.31,SW,233,7.0,13.0,73,0.00,,,0.00,WUHU216DAVISVP2,2013-01-03 08:19:00,
2013-01-03 03:20:00,15.7,8.6,29.31,WSW,241,7.0,13.0,73,0.00,,,0.00,WUHU216DAVISVP2,2013-01-03 08:20:00,
2013-01-03 03:21:00,15.7,8.6,29.31,SW,224,1.0,13.0,73,0.00,,,0.00,WUHU216DAVISVP2,2013-01-03 08:21:00,
2013-01-03 03:24:00,15.7,8.3,29.31,South,185,8.0,13.0,72,0.00,,,0.00,WUHU216DAVISVP2,2013-01-03 08:24:00,
2013-01-03 03:26:00,15.7,8.3,29.32,WSW,240,4.0,13.0,72,0.00,,,0.00,WUHU216DAVISVP2,2013-01-03 08:26:00,
2013-01-03 03:30:00,15.7,8.3,29.32,SW,224,1.0,13.0,72,0.00,,,0.00,WUHU216DAVISVP2,2013-01-03 08:30:00,
2013-01-03 03:31:00,15.7,8.3,29.32,SSW,207,5.0,13.0,72,0.00,,,0.00,WUHU216DAVISVP2,2013-01-03 08:31:00,
2013-01-03 03:35:00,15.6,8.2,29.31,SW,215,4.0,13.0,72,0.00,,,0.00,WUHU216DAVISVP2,2013-01-03 08:35:00,
2013-01-03 03:36:00,15.5,8.1,29.31,SW,230,1.0,13.0,72,0.00,,,0.00,WUHU216DAVISVP2,2013-01-03 08:36:00,
2013-01-03 03:40:00,15.4,8.0,29.31,SW,228,6.0,13.0,72,0.00,,,0.00,WUHU216DAVISVP2,2013-01-03 08:40:00,
2013-01-03 03:41:00,15.3,7.9,29.31,South,179,5.0,13.0,72,0.00,,,0.00,WUHU216DAVISVP2,2013-01-03 08:41:00,
2013-01-03 03:45:00,15.3,7.9,29.31,WSW,238,11.0,13.0,72,0.00,,,0.00,WUHU216DAVISVP2,2013-01-03 08:45:00,
2013-01-03 03:46:00,15.3,7.9,29.31,WSW,243,5.0,13.0,72,0.00,,,0.00,WUHU216DAVISVP2,2013-01-03 08:46:00,
2013-01-03 03:50:00,15.2,7.8,29.32,SW,224,4.0,13.0,72,0.00,,,0.00,WUHU216DAVISVP2,2013-01-03 08:50:00,
2013-01-03 03:51:00,15.2,7.8,29.32,WSW,241,13.0,13.0,72,0.00,,,0.00,WUHU216DAVISVP2,2013-01-03 08:51:00,
2013-01-03 03:52:00,15.2,7.8,29.32,WSW,241,13.0,13.0,72,0.00,,,0.00,WUHU216DAVISVP2,2013-01-03 08:52:00,
2013-01-03 03:56:00,15.2,7.8,29.32,SSW,206,1.0,13.0,72,0.00,,,0.00,WUHU216DAVISVP2,2013-01-03 08:56:00,
2013-01-03 03:57:00,15.2,7.8,29.32,South,182,2.0,13.0,72,0.00,,,0.00,WUHU216DAVISVP2,2013-01-03 08:57:00,
2013-01-03 04:01:00,15.2,7.8,29.31,SSW,204,5.0,13.0,72,0.00,,,0.00,WUHU216DAVISVP2,2013-01-03 09:01:00,
2013-01-03 04:02:00,15.1,7.7,29.31,SW,219,1.0,13.0,72,0.00,,,0.00,WUHU216DAVISVP2,2013-01-03 09:02:00,
2013-01-03 04:06:00,15.1,7.7,29.31,SSW,204,2.0,13.0,72,0.00,,,0.00,WUHU216DAVISVP2,2013-01-03 09:06:00,
2013-01-03 04:07:00,15.1,7.7,29.31,SW,219,1.0,13.0,72,0.00,,,0.00,WUHU216DAVISVP2,2013-01-03 09:07:00,
2013-01-03 04:11:00,15.0,7.6,29.31,SW,217,3.0,11.0,72,0.00,,,0.00,WUHU216DAVISVP2,2013-01-03 09:11:00,
2013-01-03 04:12:00,15.0,7.6,29.31,SW,221,0.0,11.0,72,0.00,,,0.00,WUHU216DAVISVP2,2013-01-03 09:12:00,
2013-01-03 04:16:00,15.0,7.6,29.31,WSW,244,6.0,11.0,72,0.00,,,0.00,WUHU216DAVISVP2,2013-01-03 09:16:00,
2013-01-03 04:17:00,15.0,7.6,29.31,WSW,241,9.0,11.0,72,0.00,,,0.00,WUHU216DAVISVP2,2013-01-03 09:17:00,
2013-01-03 04:18:00,15.0,7.6,29.31,WSW,237,10.0,11.0,72,0.00,,,0.00,WUHU216DAVISVP2,2013-01-03 09:18:00,
2013-01-03 04:22:00,15.1,7.7,29.31,SW,228,0.0,12.0,72,0.00,,,0.00,WUHU216DAVISVP2,2013-01-03 09:22:00,
2013-01-03 04:23:00,15.1,7.7,29.31,SSW,196,0.0,12.0,72,0.00,,,0.00,WUHU216DAVISVP2,2013-01-03 09:23:00,
2013-01-03 04:27:00,15.1,7.7,29.30,SSW,206,3.0,12.0,72,0.00,,,0.00,WUHU216DAVISVP2,2013-01-03 09:27:00,
2013-01-03 04:28:00,15.1,7.7,29.30,SW,215,2.0,12.0,72,0.00,,,0.00,WUHU216DAVISVP2,2013-01-03 09:28:00,
2013-01-03 04:32:00,15.0,7.3,29.30,SSW,210,1.0,12.0,71,0.00,,,0.00,WUHU216DAVISVP2,2013-01-03 09:32:00,
2013-01-03 04:33:00,15.0,7.3,29.30,SW,222,2.0,12.0,71,0.00,,,0.00,WUHU216DAVISVP2,2013-01-03 09:33:00,
2013-01-03 04:37:00,15.0,7.3,29.30,SW,234,2.0,12.0,71,0.00,,,0.00,WUHU216DAVISVP2,2013-01-03 09:37:00,
2013-01-03 04:38:00,15.0,7.3,29.30,South,187,2.0,11.0,71,0.00,,,0.00,WUHU216DAVISVP2,2013-01-03 09:38:00,
2013-01-03 04:42:00,15.2,7.5,29.31,WSW,244,7.0,11.0,71,0.00,,,0.00,WUHU216DAVISVP2,2013-01-03 09:42:00,
2013-01-03 04:43:00,15.2,7.5,29.30,WSW,243,4.0,11.0,71,0.00,,,0.00,WUHU216DAVISVP2,2013-01-03 09:43:00,
2013-01-03 04:47:00,15.3,7.6,29.30,SSW,213,4.0,11.0,71,0.00,,,0.00,WUHU216DAVISVP2,2013-01-03 09:47:00,
2013-01-03 04:48:00,15.4,7.7,29.30,SW,226,7.0,11.0,71,0.00,,,0.00,WUHU216DAVISVP2,2013-01-03 09:48:00,
2013-01-03 04:49:00,15.5,7.8,29.30,WSW,243,9.0,11.0,71,0.00,,,0.00,WUHU216DAVISVP2,2013-01-03 09:49:00,
2013-01-03 04:52:00,15.6,7.9,29.30,SW,231,8.0,11.0,71,0.00,,,0.00,WUHU216DAVISVP2,2013-01-03 09:52:00,
2013-01-03 04:53:00,15.6,7.6,29.30,WSW,237,1.0,11.0,70,0.00,,,0.00,WUHU216DAVISVP2,2013-01-03 09:53:00,
2013-01-03 04:54:00,15.7,7.6,29.30,SW,228,4.0,11.0,70,0.00,,,0.00,WUHU216DAVISVP2,2013-01-03 09:54:00,
2013-01-03 04:57:00,15.7,7.6,29.31,WSW,248,6.0,11.0,70,0.00,,,0.00,WUHU216DAVISVP2,2013-01-03 09:57:00,
2013-01-03 04:58:00,15.7,7.6,29.31,WSW,238,0.0,11.0,70,0.00,,,0.00,WUHU216DAVISVP2,2013-01-03 09:58:00,
2013-01-03 04:59:00,15.7,7.6,29.31,WSW,243,10.0,11.0,70,0.00,,,0.00,WUHU216DAVISVP2,2013-01-03 09:59:00,
2013-01-03 05:02:00,15.8,7.7,29.30,SW,231,6.0,12.0,70,0.00,,,0.00,WUHU216DAVISVP2,2013-01-03 10:02:00,
2013-01-03 05:03:00,15.8,7.4,29.30,WSW,242,9.0,12.0,69,0.00,,,0.00,WUHU216DAVISVP2,2013-01-03 10:03:00,
2013-01-03 05:04:00,15.8,9.6,29.30,WSW,237,7.0,12.0,76,0.00,,,0.00,WUHU216DAVISVP2,2013-01-03 10:04:00,
2013-01-03 05:07:00,15.9,7.5,29.31,WSW,247,9.0,12.0,69,0.00,,,0.00,WUHU216DAVISVP2,2013-01-03 10:07:00,
2013-01-03 05:08:00,15.9,7.5,29.31,WSW,247,8.0,12.0,69,0.00,,,0.00,WUHU216DAVISVP2,2013-01-03 10:08:00,
2013-01-03 05:09:00,15.9,7.5,29.31,SW,229,7.0,12.0,69,0.00,,,0.00,WUHU216DAVISVP2,2013-01-03 10:09:00,
2013-01-03 05:10:00,16.0,7.6,29.31,WSW,237,5.0,12.0,69,0.00,,,0.00,WUHU216DAVISVP2,2013-01-03 10:10:00,
2013-01-03 05:12:00,16.1,7.7,29.31,WSW,251,6.0,12.0,69,0.00,,,0.00,WUHU216DAVISVP2,2013-01-03 10:12:00,
2013-01-03 05:13:00,16.1,7.7,29.31,SW,236,7.0,12.0,69,0.00,,,0.00,WUHU216DAVISVP2,2013-01-03 10:13:00,
2013-01-03 05:14:00,16.1,7.7,29.31,SW,230,1.0,12.0,69,0.00,,,0.00,WUHU216DAVISVP2,2013-01-03 10:14:00,
2013-01-03 05:15:00,16.2,7.8,29.31,WSW,243,9.0,12.0,69,0.00,,,0.00,WUHU216DAVISVP2,2013-01-03 10:15:00,
2013-01-03 05:17:00,16.3,7.9,29.31,SW,226,0.0,12.0,69,0.00,,,0.00,WUHU216DAVISVP2,2013-01-03 10:17:00,
2013-01-03 05:18:00,16.3,7.9,29.31,WSW,251,6.0,12.0,69,0.00,,,0.00,WUHU216DAVISVP2,2013-01-03 10:18:00,
2013-01-03 05:20:00,16.3,7.9,29.30,SW,227,2.0,12.0,69,0.00,,,0.00,WUHU216DAVISVP2,2013-01-03 10:20:00,
2013-01-03 05:23:00,16.5,8.1,29.31,West,261,1.0,12.0,69,0.00,,,0.00,WUHU216DAVISVP2,2013-01-03 10:23:00,
2013-01-03 05:25:00,16.6,7.9,29.31,WSW,250,6.0,12.0,68,0.00,,,0.00,WUHU216DAVISVP2,2013-01-03 10:25:00,
2013-01-03 05:28:00,16.8,8.1,29.31,WSW,253,7.0,13.0,68,0.00,,,0.00,WUHU216DAVISVP2,2013-01-03 10:28:00,
2013-01-03 05:30:00,16.9,8.2,29.31,SW,231,8.0,13.0,68,0.00,,,0.00,WUHU216DAVISVP2,2013-01-03 10:30:00,
2013-01-03 05:31:00,16.9,7.8,29.31,WSW,251,7.0,13.0,67,0.00,,,0.00,WUHU216DAVISVP2,2013-01-03 10:31:00,
2013-01-03 05:33:00,17.1,8.0,29.31,SW,229,1.0,13.0,67,0.00,,,0.00,WUHU216DAVISVP2,2013-01-03 10:33:00,
2013-01-03 05:34:00,17.1,8.0,29.31,SW,233,7.0,13.0,67,0.00,,,0.00,WUHU216DAVISVP2,2013-01-03 10:34:00,
2013-01-03 05:35:00,17.1,8.0,29.31,SW,220,4.0,13.0,67,0.00,,,0.00,WUHU216DAVISVP2,2013-01-03 10:35:00,
2013-01-03 05:36:00,17.1,8.0,29.31,WSW,250,7.0,13.0,67,0.00,,,0.00,WUHU216DAVISVP2,2013-01-03 10:36:00,
2013-01-03 05:38:00,17.1,8.1,29.31,WSW,251,8.0,13.0,67,0.00,,,0.00,WUHU216DAVISVP2,2013-01-03 10:38:00,
2013-01-03 05:39:00,17.1,8.1,29.31,WSW,243,10.0,13.0,67,0.00,,,0.00,WUHU216DAVISVP2,2013-01-03 10:39:00,
2013-01-03 05:40:00,17.1,8.1,29.31,WSW,243,2.0,13.0,67,0.00,,,0.00,WUHU216DAVISVP2,2013-01-03 10:40:00,
2013-01-03 05:41:00,17.2,8.1,29.31,SW,229,6.0,13.0,67,0.00,,,0.00,WUHU216DAVISVP2,2013-01-03 10:41:00,
2013-01-03 05:44:00,17.3,8.5,29.31,WSW,240,8.0,13.0,68,0.00,,,0.00,WUHU216DAVISVP2,2013-01-03 10:44:00,
2013-01-03 05:45:00,17.3,8.5,29.31,SW,235,5.0,12.0,68,0.00,,,0.00,WUHU216DAVISVP2,2013-01-03 10:45:00,
2013-01-03 05:46:00,17.3,8.2,29.31,WSW,247,5.0,12.0,67,0.00,,,0.00,WUHU216DAVISVP2,2013-01-03 10:46:00,
2013-01-03 05:49:00,17.5,8.5,29.31,WSW,256,5.0,12.0,67,0.00,,,0.00,WUHU216DAVISVP2,2013-01-03 10:49:00,
2013-01-03 05:50:00,17.6,8.6,29.31,WSW,243,6.0,12.0,67,0.00,,,0.00,WUHU216DAVISVP2,2013-01-03 10:50:00,
2013-01-03 05:51:00,17.6,8.6,29.31,WSW,243,2.0,12.0,67,0.00,,,0.00,WUHU216DAVISVP2,2013-01-03 10:51:00,
2013-01-03 05:54:00,17.9,8.8,29.31,WSW,239,5.0,12.0,67,0.00,,,0.00,WUHU216DAVISVP2,2013-01-03 10:54:00,
2013-01-03 05:55:00,17.9,8.8,29.31,WSW,242,8.0,12.0,67,0.00,,,0.00,WUHU216DAVISVP2,2013-01-03 10:55:00,
2013-01-03 05:56:00,17.9,8.5,29.31,WSW,238,7.0,12.0,66,0.00,,,0.00,WUHU216DAVISVP2,2013-01-03 10:56:00,
2013-01-03 05:59:00,18.2,8.7,29.31,SW,236,7.0,10.0,66,0.00,,,0.00,WUHU216DAVISVP2,2013-01-03 10:59:00,
2013-01-03 06:00:00,18.2,8.7,29.30,SW,222,4.0,10.0,66,0.00,,,0.00,WUHU216DAVISVP2,2013-01-03 11:00:00,
2013-01-03 06:01:00,18.2,8.7,29.30,WSW,245,8.0,10.0,66,0.00,,,0.00,WUHU216DAVISVP2,2013-01-03 11:01:00,
2013-01-03 06:04:00,18.4,8.9,29.31,WSW,244,4.0,10.0,66,0.00,,,0.00,WUHU216DAVISVP2,2013-01-03 11:04:00,
2013-01-03 06:05:00,18.5,9.0,29.31,WSW,243,9.0,10.0,66,0.00,,,0.00,WUHU216DAVISVP2,2013-01-03 11:05:00,
2013-01-03 06:06:00,18.5,9.0,29.31,West,266,9.0,10.0,66,0.00,,,0.00,WUHU216DAVISVP2,2013-01-03 11:06:00,
2013-01-03 06:09:00,18.6,8.8,29.31,SW,235,5.0,10.0,65,0.00,,,0.00,WUHU216DAVISVP2,2013-01-03 11:09:00,
2013-01-03 06:10:00,18.6,8.8,29.31,WSW,249,8.0,10.0,65,0.00,,,0.00,WUHU216DAVISVP2,2013-01-03 11:10:00,
2013-01-03 06:11:00,18.6,8.8,29.31,West,272,6.0,10.0,65,0.00,,,0.00,WUHU216DAVISVP2,2013-01-03 11:11:00,
2013-01-03 06:14:00,18.8,9.3,29.31,WSW,253,4.0,10.0,66,0.00,,,0.00,WUHU216DAVISVP2,2013-01-03 11:14:00,
2013-01-03 06:15:00,18.8,9.4,29.31,West,262,5.0,10.0,66,0.00,,,0.00,WUHU216DAVISVP2,2013-01-03 11:15:00,
2013-01-03 06:16:00,18.9,9.5,29.31,West,263,6.0,10.0,66,0.00,,,0.00,WUHU216DAVISVP2,2013-01-03 11:16:00,
2013-01-03 06:19:00,19.1,9.3,29.31,WSW,249,2.0,10.0,65,0.00,,,0.00,WUHU216DAVISVP2,2013-01-03 11:19:00,
2013-01-03 06:20:00,19.1,9.3,29.31,WSW,249,2.0,10.0,65,0.00,,,0.00,WUHU216DAVISVP2,2013-01-03 11:20:00,
2013-01-03 06:21:00,19.1,9.3,29.31,WSW,249,1.0,10.0,65,0.00,,,0.00,WUHU216DAVISVP2,2013-01-03 11:21:00,
2013-01-03 06:25:00,19.3,9.5,29.31,WSW,241,2.0,10.0,65,0.00,,,0.00,WUHU216DAVISVP2,2013-01-03 11:25:00,
2013-01-03 06:26:00,19.4,9.6,29.31,WSW,249,5.0,10.0,65,0.00,,,0.00,WUHU216DAVISVP2,2013-01-03 11:26:00,
2013-01-03 06:30:00,19.6,9.8,29.31,WSW,255,5.0,8.0,65,0.00,,,0.00,WUHU216DAVISVP2,2013-01-03 11:30:00,
2013-01-03 06:31:00,19.6,9.8,29.31,West,271,5.0,8.0,65,0.00,,,0.00,WUHU216DAVISVP2,2013-01-03 11:31:00,
2013-01-03 06:35:00,19.8,10.0,29.32,WSW,247,6.0,10.0,65,0.00,,,0.00,WUHU216DAVISVP2,2013-01-03 11:35:00,
2013-01-03 06:36:00,19.8,10.0,29.31,WSW,250,7.0,10.0,65,0.00,,,0.00,WUHU216DAVISVP2,2013-01-03 11:36:00,
2013-01-03 06:37:00,19.8,10.0,29.31,WSW,257,10.0,12.0,65,0.00,,,0.00,WUHU216DAVISVP2,2013-01-03 11:37:00,
2013-01-03 06:40:00,20.0,10.2,29.31,WSW,247,5.0,12.0,65,0.00,,,0.00,WUHU216DAVISVP2,2013-01-03 11:40:00,
2013-01-03 06:41:00,20.1,10.3,29.31,WSW,253,6.0,12.0,65,0.00,,,0.00,WUHU216DAVISVP2,2013-01-03 11:41:00,
2013-01-03 06:42:00,20.1,10.3,29.32,WSW,247,7.0,12.0,65,0.00,,,0.00,WUHU216DAVISVP2,2013-01-03 11:42:00,
2013-01-03 06:45:00,20.3,10.5,29.32,WSW,237,6.0,12.0,65,0.00,,,0.00,WUHU216DAVISVP2,2013-01-03 11:45:00,
2013-01-03 06:46:00,20.3,10.5,29.32,West,260,5.0,12.0,65,0.00,,,0.00,WUHU216DAVISVP2,2013-01-03 11:46:00,
2013-01-03 06:47:00,20.3,10.5,29.32,WSW,257,5.0,12.0,65,0.00,,,0.00,WUHU216DAVISVP2,2013-01-03 11:47:00,
2013-01-03 06:50:00,20.4,10.5,29.32,WSW,243,10.0,12.0,65,0.00,,,0.00,WUHU216DAVISVP2,2013-01-03 11:50:00,
2013-01-03 06:51:00,20.5,10.6,29.32,WSW,243,10.0,12.0,65,0.00,,,0.00,WUHU216DAVISVP2,2013-01-03 11:51:00,
2013-01-03 06:52:00,20.5,10.6,29.32,SW,224,5.0,12.0,65,0.00,,,0.00,WUHU216DAVISVP2,2013-01-03 11:52:00,
2013-01-03 06:53:00,20.6,10.7,29.32,WSW,239,7.0,12.0,65,0.00,,,0.00,WUHU216DAVISVP2,2013-01-03 11:53:00,
2013-01-03 06:56:00,20.7,10.8,29.32,WSW,258,8.0,11.0,65,0.00,,,0.00,WUHU216DAVISVP2,2013-01-03 11:56:00,
2013-01-03 06:57:00,20.7,10.8,29.32,WSW,255,8.0,13.0,65,0.00,,,0.00,WUHU216DAVISVP2,2013-01-03 11:57:00,
2013-01-03 06:58:00,20.8,10.9,29.32,WSW,243,9.0,13.0,65,0.00,,,0.00,WUHU216DAVISVP2,2013-01-03 11:58:00,
2013-01-03 07:01:00,20.9,11.0,29.32,SW,228,4.0,13.0,65,0.00,,,0.00,WUHU216DAVISVP2,2013-01-03 12:01:00,
2013-01-03 07:02:00,20.9,11.0,29.32,WSW,249,8.0,13.0,65,0.00,,,0.00,WUHU216DAVISVP2,2013-01-03 12:02:00,
2013-01-03 07:03:00,20.9,11.0,29.32,WSW,254,6.0,13.0,65,0.00,,,0.00,WUHU216DAVISVP2,2013-01-03 12:03:00,
2013-01-03 07:06:00,21.0,11.4,29.32,WSW,252,3.0,13.0,66,0.00,,,0.00,WUHU216DAVISVP2,2013-01-03 12:06:00,
2013-01-03 07:07:00,21.0,11.4,29.32,WSW,254,11.0,14.0,66,0.00,,,0.00,WUHU216DAVISVP2,2013-01-03 12:07:00,
2013-01-03 07:08:00,21.0,11.4,29.32,WSW,257,6.0,14.0,66,0.00,,,0.00,WUHU216DAVISVP2,2013-01-03 12:08:00,
2013-01-03 07:11:00,21.1,11.5,29.31,WSW,242,9.0,14.0,66,0.00,,,0.00,WUHU216DAVISVP2,2013-01-03 12:11:00,
2013-01-03 07:12:00,21.1,11.5,29.32,WSW,252,7.0,14.0,66,0.00,,,0.00,WUHU216DAVISVP2,2013-01-03 12:12:00,
2013-01-03 07:13:00,21.2,11.6,29.31,West,260,8.0,14.0,66,0.00,,,0.00,WUHU216DAVISVP2,2013-01-03 12:13:00,
2013-01-03 07:16:00,21.2,11.7,29.31,West,265,6.0,14.0,66,0.00,,,0.00,WUHU216DAVISVP2,2013-01-03 12:16:00,
2013-01-03 07:17:00,21.2,11.7,29.31,WSW,258,5.0,14.0,66,0.00,,,0.00,WUHU216DAVISVP2,2013-01-03 12:17:00,
2013-01-03 07:18:00,21.2,11.7,29.31,WSW,251,8.0,14.0,66,0.00,,,0.00,WUHU216DAVISVP2,2013-01-03 12:18:00,
2013-01-03 07:21:00,21.3,12.1,29.31,WSW,243,11.0,16.0,67,0.00,,,0.00,WUHU216DAVISVP2,2013-01-03 12:21:00,
2013-01-03 07:22:00,21.3,12.1,29.31,WSW,241,11.0,16.0,67,0.00,,,0.00,WUHU216DAVISVP2,2013-01-03 12:22:00,
2013-01-03 07:23:00,21.3,12.1,29.31,WSW,251,7.0,16.0,67,0.00,,,0.00,WUHU216DAVISVP2,2013-01-03 12:23:00,
2013-01-03 07:24:00,21.3,12.1,29.31,WSW,257,9.0,16.0,67,0.00,,,0.00,WUHU216DAVISVP2,2013-01-03 12:24:00,
2013-01-03 07:26:00,21.4,12.2,29.31,WSW,249,9.0,16.0,67,0.00,,,0.00,WUHU216DAVISVP2,2013-01-03 12:26:00,
2013-01-03 07:27:00,21.4,12.2,29.31,WSW,246,5.0,16.0,67,0.00,,,0.00,WUHU216DAVISVP2,2013-01-03 12:27:00,
2013-01-03 07:28:00,21.4,12.2,29.31,WSW,244,11.0,16.0,67,0.00,,,0.00,WUHU216DAVISVP2,2013-01-03 12:28:00,
2013-01-03 07:29:00,21.4,12.5,29.31,SW,228,5.0,16.0,68,0.00,,,0.00,WUHU216DAVISVP2,2013-01-03 12:29:00,
2013-01-03 07:32:00,21.5,12.6,29.31,WSW,243,13.0,16.0,68,0.00,,,0.00,WUHU216DAVISVP2,2013-01-03 12:32:00,
2013-01-03 07:33:00,21.5,12.6,29.30,West,263,6.0,16.0,68,0.00,,,0.00,WUHU216DAVISVP2,2013-01-03 12:33:00,
2013-01-03 07:34:00,21.5,13.0,29.30,WSW,237,9.0,16.0,69,0.00,,,0.00,WUHU216DAVISVP2,2013-01-03 12:34:00,
2013-01-03 07:37:00,21.5,12.6,29.30,WSW,243,7.0,16.0,68,0.00,,,0.00,WUHU216DAVISVP2,2013-01-03 12:37:00,
2013-01-03 07:38:00,21.5,13.0,29.30,WSW,252,8.0,16.0,69,0.00,,,0.00,WUHU216DAVISVP2,2013-01-03 12:38:00,
2013-01-03 07:40:00,21.5,13.0,29.30,WSW,256,5.0,16.0,69,0.00,,,0.00,WUHU216DAVISVP2,2013-01-03 12:40:00,
2013-01-03 07:42:00,21.5,13.0,29.30,WSW,256,6.0,16.0,69,0.00,,,0.00,WUHU216DAVISVP2,2013-01-03 12:42:00,
2013-01-03 07:44:00,21.5,13.0,29.31,West,269,5.0,16.0,69,0.00,,,0.00,WUHU216DAVISVP2,2013-01-03 12:44:00,
2013-01-03 07:45:00,21.5,13.3,29.31,West,270,4.0,16.0,70,0.00,,,0.00,WUHU216DAVISVP2,2013-01-03 12:45:00,
2013-01-03 07:47:00,21.5,13.2,29.31,WSW,258,6.0,16.0,70,0.00,,,0.00,WUHU216DAVISVP2,2013-01-03 12:47:00,
2013-01-03 07:48:00,21.5,13.2,29.31,West,261,4.0,16.0,70,0.00,,,0.00,WUHU216DAVISVP2,2013-01-03 12:48:00,
2013-01-03 07:49:00,21.5,13.2,29.31,West,269,9.0,16.0,70,0.00,,,0.00,WUHU216DAVISVP2,2013-01-03 12:49:00,
2013-01-03 07:50:00,21.5,13.2,29.31,West,262,5.0,16.0,70,0.00,,,0.00,WUHU216DAVISVP2,2013-01-03 12:50:00,
2013-01-03 07:53:00,21.5,13.3,29.31,WSW,251,6.0,16.0,70,0.00,,,0.00,WUHU216DAVISVP2,2013-01-03 12:53:00,
2013-01-03 07:54:00,21.5,13.3,29.31,WSW,245,9.0,13.0,70,0.00,,,0.00,WUHU216DAVISVP2,2013-01-03 12:54:00,
2013-01-03 07:55:00,21.5,13.3,29.31,WSW,250,7.0,13.0,70,0.00,,,0.00,WUHU216DAVISVP2,2013-01-03 12:55:00,
2013-01-03 07:58:00,21.5,13.6,29.31,WSW,258,4.0,13.0,71,0.00,,,0.00,WUHU216DAVISVP2,2013-01-03 12:58:00,
2013-01-03 08:00:00,21.5,13.6,29.31,West,262,5.0,11.0,71,0.00,,,0.00,WUHU216DAVISVP2,2013-01-03 13:00:00,
2013-01-03 08:03:00,21.5,13.6,29.31,WSW,255,8.0,13.0,71,0.00,,,0.00,WUHU216DAVISVP2,2013-01-03 13:03:00,
2013-01-03 08:05:00,21.5,13.6,29.31,WSW,258,6.0,13.0,71,0.00,,,0.00,WUHU216DAVISVP2,2013-01-03 13:05:00,
2013-01-03 08:08:00,21.5,13.6,29.31,WSW,245,10.0,13.0,71,0.00,,,0.00,WUHU216DAVISVP2,2013-01-03 13:08:00,
2013-01-03 08:10:00,21.4,13.5,29.31,West,272,9.0,13.0,71,0.00,,,0.00,WUHU216DAVISVP2,2013-01-03 13:10:00,
2013-01-03 08:13:00,21.3,13.7,29.32,West,263,5.0,13.0,72,0.00,,,0.00,WUHU216DAVISVP2,2013-01-03 13:13:00,
2013-01-03 08:14:00,21.3,13.4,29.32,WSW,256,5.0,13.0,71,0.00,,,0.00,WUHU216DAVISVP2,2013-01-03 13:14:00,
2013-01-03 08:15:00,21.3,13.7,29.32,WSW,253,5.0,13.0,72,0.00,,,0.00,WUHU216DAVISVP2,2013-01-03 13:15:00,
2013-01-03 08:18:00,21.2,13.6,29.32,West,260,8.0,13.0,72,0.00,,,0.00,WUHU216DAVISVP2,2013-01-03 13:18:00,
2013-01-03 08:19:00,21.2,13.6,29.32,WSW,256,9.0,13.0,72,0.00,,,0.00,WUHU216DAVISVP2,2013-01-03 13:19:00,
2013-01-03 08:20:00,21.2,13.6,29.32,WSW,255,6.0,13.0,72,0.00,,,0.00,WUHU216DAVISVP2,2013-01-03 13:20:00,
2013-01-03 08:23:00,21.1,13.5,29.32,West,262,6.0,11.0,72,0.00,,,0.00,WUHU216DAVISVP2,2013-01-03 13:23:00,
2013-01-03 08:24:00,21.1,13.5,29.32,WSW,255,4.0,11.0,72,0.00,,,0.00,WUHU216DAVISVP2,2013-01-03 13:24:00,
2013-01-03 08:25:00,21.1,13.5,29.32,WSW,254,8.0,11.0,72,0.00,,,0.00,WUHU216DAVISVP2,2013-01-03 13:25:00,
2013-01-03 08:28:00,21.0,13.7,29.32,West,260,6.0,10.0,73,0.00,,,0.00,WUHU216DAVISVP2,2013-01-03 13:28:00,
2013-01-03 08:29:00,21.0,13.7,29.32,West,260,6.0,10.0,73,0.00,,,0.00,WUHU216DAVISVP2,2013-01-03 13:29:00,
2013-01-03 08:30:00,21.0,13.7,29.31,WSW,253,6.0,10.0,73,0.00,,,0.00,WUHU216DAVISVP2,2013-01-03 13:30:00,
2013-01-03 08:31:00,21.0,13.7,29.31,WSW,258,5.0,10.0,73,0.00,,,0.00,WUHU216DAVISVP2,2013-01-03 13:31:00,
2013-01-03 08:33:00,20.9,13.6,29.31,West,264,6.0,10.0,73,0.00,,,0.00,WUHU216DAVISVP2,2013-01-03 13:33:00,
2013-01-03 08:34:00,20.9,13.6,29.31,WSW,258,6.0,10.0,73,0.00,,,0.00,WUHU216DAVISVP2,2013-01-03 13:34:00,
2013-01-03 08:36:00,20.9,13.6,29.31,WSW,258,4.0,10.0,73,0.00,,,0.00,WUHU216DAVISVP2,2013-01-03 13:36:00,
2013-01-03 08:38:00,21.0,14.0,29.32,WSW,257,6.0,10.0,74,0.00,,,0.00,WUHU216DAVISVP2,2013-01-03 13:38:00,
2013-01-03 08:39:00,21.0,14.0,29.32,WSW,248,8.0,10.0,74,0.00,,,0.00,WUHU216DAVISVP2,2013-01-03 13:39:00,
2013-01-03 08:41:00,21.0,14.0,29.31,WSW,255,6.0,10.0,74,0.00,,,0.00,WUHU216DAVISVP2,2013-01-03 13:41:00,
2013-01-03 08:43:00,21.0,14.0,29.31,West,261,5.0,10.0,74,0.00,,,0.00,WUHU216DAVISVP2,2013-01-03 13:43:00,
2013-01-03 08:44:00,21.1,14.1,29.31,WSW,253,6.0,10.0,74,0.00,,,0.00,WUHU216DAVISVP2,2013-01-03 13:44:00,
2013-01-03 08:46:00,21.1,14.1,29.31,West,272,5.0,11.0,74,0.00,,,0.00,WUHU216DAVISVP2,2013-01-03 13:46:00,
2013-01-03 08:49:00,21.2,14.2,29.32,WSW,242,11.0,12.0,74,0.00,,,0.00,WUHU216DAVISVP2,2013-01-03 13:49:00,
2013-01-03 08:50:00,21.2,14.2,29.32,West,264,6.0,12.0,74,0.00,,,0.00,WUHU216DAVISVP2,2013-01-03 13:50:00,
2013-01-03 08:51:00,21.2,14.2,29.32,WSW,251,7.0,12.0,74,0.00,,,0.00,WUHU216DAVISVP2,2013-01-03 13:51:00,
2013-01-03 08:52:00,21.2,14.2,29.32,WSW,254,7.0,12.0,74,0.00,,,0.00,WUHU216DAVISVP2,2013-01-03 13:52:00,
2013-01-03 08:54:00,21.3,14.3,29.32,WSW,255,7.0,12.0,74,0.00,,,0.00,WUHU216DAVISVP2,2013-01-03 13:54:00,
2013-01-03 08:55:00,21.3,14.3,29.32,West,268,8.0,12.0,74,0.00,,,0.00,WUHU216DAVISVP2,2013-01-03 13:55:00,
2013-01-03 08:56:00,21.3,14.3,29.32,West,262,5.0,12.0,74,0.00,,,0.00,WUHU216DAVISVP2,2013-01-03 13:56:00,
2013-01-03 08:58:00,21.3,14.3,29.32,West,262,9.0,12.0,74,0.00,,,0.00,WUHU216DAVISVP2,2013-01-03 13:58:00,
2013-01-03 08:59:00,21.3,14.3,29.32,West,274,6.0,12.0,74,0.00,,,0.00,WUHU216DAVISVP2,2013-01-03 13:59:00,
2013-01-03 09:00:00,21.3,14.3,29.32,West,278,6.0,12.0,74,0.00,,,0.00,WUHU216DAVISVP2,2013-01-03 14:00:00,
2013-01-03 09:01:00,21.3,14.3,29.32,West,263,10.0,12.0,74,0.00,,,0.00,WUHU216DAVISVP2,2013-01-03 14:01:00,
2013-01-03 09:03:00,21.3,14.3,29.32,West,266,8.0,12.0,74,0.00,,,0.00,WUHU216DAVISVP2,2013-01-03 14:03:00,
2013-01-03 09:04:00,21.4,14.7,29.32,West,261,6.0,12.0,75,0.00,,,0.00,WUHU216DAVISVP2,2013-01-03 14:04:00,
2013-01-03 09:05:00,21.4,14.7,29.32,West,260,9.0,13.0,75,0.00,,,0.00,WUHU216DAVISVP2,2013-01-03 14:05:00,
2013-01-03 09:07:00,21.4,14.7,29.32,WSW,258,7.0,13.0,75,0.00,,,0.00,WUHU216DAVISVP2,2013-01-03 14:07:00,
2013-01-03 09:08:00,21.5,14.8,29.32,West,268,6.0,13.0,75,0.00,,,0.00,WUHU216DAVISVP2,2013-01-03 14:08:00,
2013-01-03 09:09:00,21.5,14.8,29.32,West,270,8.0,13.0,75,0.00,,,0.00,WUHU216DAVISVP2,2013-01-03 14:09:00,
2013-01-03 09:10:00,21.5,14.8,29.32,West,265,8.0,13.0,75,0.00,,,0.00,WUHU216DAVISVP2,2013-01-03 14:10:00,
2013-01-03 09:12:00,21.5,14.8,29.32,West,261,6.0,13.0,75,0.00,,,0.00,WUHU216DAVISVP2,2013-01-03 14:12:00,
2013-01-03 09:13:00,21.6,14.9,29.32,West,278,5.0,13.0,75,0.00,,,0.00,WUHU216DAVISVP2,2013-01-03 14:13:00,
2013-01-03 09:14:00,21.7,15.0,29.32,West,260,10.0,13.0,75,0.00,,,0.00,WUHU216DAVISVP2,2013-01-03 14:14:00,
2013-01-03 09:15:00,21.7,15.0,29.32,West,261,8.0,13.0,75,0.00,,,0.00,WUHU216DAVISVP2,2013-01-03 14:15:00,
2013-01-03 09:17:00,21.7,15.0,29.32,WSW,256,5.0,13.0,75,0.00,,,0.00,WUHU216DAVISVP2,2013-01-03 14:17:00,
2013-01-03 09:18:00,21.8,15.1,29.32,WSW,249,8.0,13.0,75,0.00,,,0.00,WUHU216DAVISVP2,2013-01-03 14:18:00,
2013-01-03 09:20:00,21.8,15.1,29.32,WSW,258,7.0,13.0,75,0.00,,,0.00,WUHU216DAVISVP2,2013-01-03 14:20:00,
2013-01-03 09:22:00,21.8,15.1,29.32,West,262,6.0,13.0,75,0.00,,,0.00,WUHU216DAVISVP2,2013-01-03 14:22:00,
2013-01-03 09:24:00,21.9,15.2,29.32,WSW,244,7.0,13.0,75,0.00,,,0.00,WUHU216DAVISVP2,2013-01-03 14:24:00,
2013-01-03 09:25:00,21.9,15.5,29.32,West,260,9.0,13.0,76,0.00,,,0.00,WUHU216DAVISVP2,2013-01-03 14:25:00,
2013-01-03 09:26:00,21.9,15.5,29.32,West,261,8.0,14.0,76,0.00,,,0.00,WUHU216DAVISVP2,2013-01-03 14:26:00,
2013-01-03 09:27:00,21.9,15.5,29.32,WSW,254,5.0,14.0,76,0.00,,,0.00,WUHU216DAVISVP2,2013-01-03 14:27:00,
2013-01-03 09:29:00,22.0,15.6,29.32,WSW,249,7.0,14.0,76,0.00,,,0.00,WUHU216DAVISVP2,2013-01-03 14:29:00,
2013-01-03 09:30:00,22.0,15.6,29.32,West,268,7.0,14.0,76,0.00,,,0.00,WUHU216DAVISVP2,2013-01-03 14:30:00,
2013-01-03 09:32:00,22.0,15.6,29.32,West,268,9.0,14.0,76,0.00,,,0.00,WUHU216DAVISVP2,2013-01-03 14:32:00,
2013-01-03 09:34:00,22.1,15.7,29.33,WSW,258,6.0,14.0,76,0.00,,,0.00,WUHU216DAVISVP2,2013-01-03 14:34:00,
2013-01-03 09:35:00,22.1,15.7,29.33,West,264,7.0,14.0,76,0.00,,,0.00,WUHU216DAVISVP2,2013-01-03 14:35:00,
2013-01-03 09:37:00,22.2,15.8,29.33,WSW,253,8.0,14.0,76,0.00,,,0.00,WUHU216DAVISVP2,2013-01-03 14:37:00,
2013-01-03 09:39:00,22.2,16.1,29.33,West,263,6.0,14.0,77,0.00,,,0.00,WUHU216DAVISVP2,2013-01-03 14:39:00,
2013-01-03 09:40:00,22.3,16.2,29.33,WSW,254,5.0,14.0,77,0.00,,,0.00,WUHU216DAVISVP2,2013-01-03 14:40:00,
2013-01-03 09:42:00,22.3,16.2,29.33,West,266,6.0,14.0,77,0.00,,,0.00,WUHU216DAVISVP2,2013-01-03 14:42:00,
2013-01-03 09:44:00,22.4,16.3,29.33,West,259,9.0,13.0,77,0.00,,,0.00,WUHU216DAVISVP2,2013-01-03 14:44:00,
2013-01-03 09:45:00,22.4,16.3,29.33,West,262,6.0,13.0,77,0.00,,,0.00,WUHU216DAVISVP2,2013-01-03 14:45:00,
2013-01-03 09:47:00,22.5,16.4,29.33,West,272,6.0,13.0,77,0.00,,,0.00,WUHU216DAVISVP2,2013-01-03 14:47:00,
2013-01-03 09:49:00,22.6,16.8,29.33,West,260,6.0,13.0,78,0.00,,,0.00,WUHU216DAVISVP2,2013-01-03 14:49:00,
2013-01-03 09:51:00,22.6,16.8,29.33,West,262,8.0,13.0,78,0.00,,,0.00,WUHU216DAVISVP2,2013-01-03 14:51:00,
2013-01-03 09:52:00,22.7,16.9,29.33,WSW,253,7.0,13.0,78,0.00,,,0.00,WUHU216DAVISVP2,2013-01-03 14:52:00,
2013-01-03 09:54:00,22.8,17.0,29.33,West,268,10.0,13.0,78,0.00,,,0.00,WUHU216DAVISVP2,2013-01-03 14:54:00,
2013-01-03 09:56:00,22.8,17.0,29.33,WSW,256,5.0,13.0,78,0.00,,,0.00,WUHU216DAVISVP2,2013-01-03 14:56:00,
2013-01-03 09:57:00,22.9,17.1,29.33,WSW,249,8.0,13.0,78,0.00,,,0.00,WUHU216DAVISVP2,2013-01-03 14:57:00,
2013-01-03 10:00:00,22.9,17.1,29.33,WSW,237,7.0,13.0,78,0.00,,,0.00,WUHU216DAVISVP2,2013-01-03 15:00:00,
2013-01-03 10:01:00,23.0,17.2,29.33,WSW,256,6.0,13.0,78,0.00,,,0.00,WUHU216DAVISVP2,2013-01-03 15:01:00,
2013-01-03 10:02:00,23.0,17.5,29.33,West,274,11.0,14.0,79,0.00,,,0.00,WUHU216DAVISVP2,2013-01-03 15:02:00,
2013-01-03 10:03:00,23.1,17.6,29.33,West,269,8.0,14.0,79,0.00,,,0.00,WUHU216DAVISVP2,2013-01-03 15:03:00,
2013-01-03 10:05:00,23.2,17.7,29.33,West,264,7.0,14.0,79,0.00,,,0.00,WUHU216DAVISVP2,2013-01-03 15:05:00,
2013-01-03 10:06:00,23.3,17.8,29.33,WSW,241,10.0,14.0,79,0.00,,,0.00,WUHU216DAVISVP2,2013-01-03 15:06:00,
2013-01-03 10:07:00,23.3,17.8,29.34,WSW,253,10.0,14.0,79,0.00,,,0.00,WUHU216DAVISVP2,2013-01-03 15:07:00,
2013-01-03 10:08:00,23.3,17.8,29.34,WSW,258,11.0,14.0,79,0.00,,,0.00,WUHU216DAVISVP2,2013-01-03 15:08:00,
2013-01-03 10:10:00,23.4,18.1,29.34,West,266,11.0,14.0,80,0.00,,,0.00,WUHU216DAVISVP2,2013-01-03 15:10:00,
2013-01-03 10:11:00,23.4,18.1,29.34,WSW,255,6.0,14.0,80,0.00,,,0.00,WUHU216DAVISVP2,2013-01-03 15:11:00,
2013-01-03 10:13:00,23.4,18.1,29.34,West,274,9.0,14.0,80,0.00,,,0.00,WUHU216DAVISVP2,2013-01-03 15:13:00,
2013-01-03 10:15:00,23.6,18.3,29.34,West,280,10.0,14.0,80,0.00,,,0.00,WUHU216DAVISVP2,2013-01-03 15:15:00,
2013-01-03 10:17:00,23.6,18.3,29.34,West,265,10.0,15.0,80,0.00,,,0.00,WUHU216DAVISVP2,2013-01-03 15:17:00,
2013-01-03 10:18:00,23.6,18.3,29.34,WSW,249,5.0,15.0,80,0.00,,,0.00,WUHU216DAVISVP2,2013-01-03 15:18:00,
2013-01-03 10:20:00,23.7,18.4,29.34,West,264,9.0,15.0,80,0.00,,,0.00,WUHU216DAVISVP2,2013-01-03 15:20:00,
2013-01-03 10:22:00,23.7,18.4,29.34,West,272,9.0,15.0,80,0.00,,,0.00,WUHU216DAVISVP2,2013-01-03 15:22:00,
2013-01-03 10:23:00,23.8,18.5,29.34,WSW,246,12.0,15.0,80,0.00,,,0.00,WUHU216DAVISVP2,2013-01-03 15:23:00,
2013-01-03 10:25:00,23.9,18.9,29.34,West,268,9.0,15.0,81,0.00,,,0.00,WUHU216DAVISVP2,2013-01-03 15:25:00,
2013-01-03 10:27:00,24.0,19.0,29.34,West,262,9.0,15.0,81,0.00,,,0.00,WUHU216DAVISVP2,2013-01-03 15:27:00,
2013-01-03 10:28:00,24.0,19.0,29.34,West,260,10.0,15.0,81,0.00,,,0.00,WUHU216DAVISVP2,2013-01-03 15:28:00,
2013-01-03 10:30:00,24.0,19.0,29.34,WSW,258,6.0,15.0,81,0.00,,,0.00,WUHU216DAVISVP2,2013-01-03 15:30:00,
2013-01-03 10:32:00,24.1,19.1,29.34,West,261,12.0,15.0,81,0.00,,,0.00,WUHU216DAVISVP2,2013-01-03 15:32:00,
2013-01-03 10:33:00,24.1,19.1,29.34,West,265,8.0,15.0,81,0.00,,,0.00,WUHU216DAVISVP2,2013-01-03 15:33:00,
2013-01-03 10:35:00,24.2,19.2,29.34,West,266,10.0,15.0,81,0.00,,,0.00,WUHU216DAVISVP2,2013-01-03 15:35:00,
2013-01-03 10:37:00,24.2,19.2,29.34,WSW,256,6.0,15.0,81,0.00,,,0.00,WUHU216DAVISVP2,2013-01-03 15:37:00,
2013-01-03 10:38:00,24.2,19.2,29.34,West,264,6.0,15.0,81,0.00,,,0.00,WUHU216DAVISVP2,2013-01-03 15:38:00,
2013-01-03 10:39:00,24.3,19.3,29.34,West,268,7.0,15.0,81,0.00,,,0.00,WUHU216DAVISVP2,2013-01-03 15:39:00,
2013-01-03 10:40:00,24.4,19.4,29.34,WSW,247,10.0,15.0,81,0.00,,,0.00,WUHU216DAVISVP2,2013-01-03 15:40:00,
2013-01-03 10:42:00,24.5,19.5,29.34,WSW,258,7.0,15.0,81,0.00,,,0.00,WUHU216DAVISVP2,2013-01-03 15:42:00,
2013-01-03 10:43:00,24.5,19.5,29.34,WSW,241,8.0,15.0,81,0.00,,,0.00,WUHU216DAVISVP2,2013-01-03 15:43:00,
2013-01-03 10:44:00,24.5,19.5,29.34,WSW,240,9.0,15.0,81,0.00,,,0.00,WUHU216DAVISVP2,2013-01-03 15:44:00,
2013-01-03 10:45:00,24.6,19.3,29.35,SW,224,5.0,15.0,80,0.00,,,0.00,WUHU216DAVISVP2,2013-01-03 15:45:00,
2013-01-03 10:47:00,24.7,19.4,29.35,WSW,243,7.0,15.0,80,0.00,,,0.00,WUHU216DAVISVP2,2013-01-03 15:47:00,
2013-01-03 10:48:00,24.7,19.7,29.35,SW,230,7.0,15.0,81,0.00,,,0.00,WUHU216DAVISVP2,2013-01-03 15:48:00,
2013-01-03 10:49:00,24.7,19.7,29.35,WSW,258,5.0,15.0,81,0.00,,,0.00,WUHU216DAVISVP2,2013-01-03 15:49:00,
2013-01-03 10:50:00,24.8,19.8,29.35,WSW,253,8.0,15.0,81,0.00,,,0.00,WUHU216DAVISVP2,2013-01-03 15:50:00,
2013-01-03 10:52:00,24.8,19.8,29.35,WSW,245,10.0,15.0,81,0.00,,,0.00,WUHU216DAVISVP2,2013-01-03 15:52:00,
2013-01-03 10:53:00,24.8,19.5,29.35,West,269,10.0,15.0,80,0.00,,,0.00,WUHU216DAVISVP2,2013-01-03 15:53:00,
2013-01-03 10:54:00,24.9,19.9,29.35,WSW,253,16.0,16.0,81,0.00,,,0.00,WUHU216DAVISVP2,2013-01-03 15:54:00,
2013-01-03 10:55:00,24.9,19.9,29.35,West,272,9.0,16.0,81,0.00,,,0.00,WUHU216DAVISVP2,2013-01-03 15:55:00,
2013-01-03 10:57:00,25.0,20.0,29.35,WSW,257,9.0,16.0,81,0.00,,,0.00,WUHU216DAVISVP2,2013-01-03 15:57:00,
2013-01-03 10:58:00,25.1,20.1,29.35,WSW,253,7.0,16.0,81,0.00,,,0.00,WUHU216DAVISVP2,2013-01-03 15:58:00,
2013-01-03 10:59:00,25.1,20.1,29.35,West,273,5.0,16.0,81,0.00,,,0.00,WUHU216DAVISVP2,2013-01-03 15:59:00,
2013-01-03 11:00:00,25.2,20.2,29.35,West,261,6.0,16.0,81,0.00,,,0.00,WUHU216DAVISVP2,2013-01-03 16:00:00,
2013-01-03 11:02:00,25.3,20.3,29.34,SW,228,4.0,16.0,81,0.00,,,0.00,WUHU216DAVISVP2,2013-01-03 16:02:00,
2013-01-03 11:03:00,25.4,20.4,29.34,West,268,7.0,16.0,81,0.00,,,0.00,WUHU216DAVISVP2,2013-01-03 16:03:00,
2013-01-03 11:04:00,25.4,20.4,29.34,WSW,251,9.0,16.0,81,0.00,,,0.00,WUHU216DAVISVP2,2013-01-03 16:04:00,
2013-01-03 11:05:00,25.4,20.4,29.34,WSW,245,7.0,16.0,81,0.00,,,0.00,WUHU216DAVISVP2,2013-01-03 16:05:00,
2013-01-03 11:08:00,25.5,20.2,29.34,West,265,7.0,16.0,80,0.00,,,0.00,WUHU216DAVISVP2,2013-01-03 16:08:00,
2013-01-03 11:10:00,25.4,20.1,29.34,WSW,256,7.0,16.0,80,0.00,,,0.00,WUHU216DAVISVP2,2013-01-03 16:10:00,
2013-01-03 11:11:00,25.4,20.1,29.34,West,278,7.0,16.0,80,0.00,,,0.00,WUHU216DAVISVP2,2013-01-03 16:11:00,
2013-01-03 11:13:00,25.5,20.2,29.34,West,260,9.0,15.0,80,0.00,,,0.00,WUHU216DAVISVP2,2013-01-03 16:13:00,
2013-01-03 11:14:00,25.5,20.2,29.34,WSW,251,7.0,15.0,80,0.00,,,0.00,WUHU216DAVISVP2,2013-01-03 16:14:00,
2013-01-03 11:15:00,25.5,20.5,29.34,WSW,251,11.0,16.0,81,0.00,,,0.00,WUHU216DAVISVP2,2013-01-03 16:15:00,
2013-01-03 11:16:00,25.5,20.5,29.35,West,263,10.0,16.0,81,0.00,,,0.00,WUHU216DAVISVP2,2013-01-03 16:16:00,
2013-01-03 11:18:00,25.4,20.4,29.35,West,263,12.0,16.0,81,0.00,,,0.00,WUHU216DAVISVP2,2013-01-03 16:18:00,
2013-01-03 11:19:00,25.4,20.4,29.35,West,268,13.0,16.0,81,0.00,,,0.00,WUHU216DAVISVP2,2013-01-03 16:19:00,
2013-01-03 11:20:00,25.5,20.5,29.35,West,265,9.0,16.0,81,0.00,,,0.00,WUHU216DAVISVP2,2013-01-03 16:20:00,
2013-01-03 11:21:00,25.5,20.5,29.35,West,271,12.0,22.0,81,0.00,,,0.00,WUHU216DAVISVP2,2013-01-03 16:21:00,
2013-01-03 11:24:00,25.4,20.4,29.35,WSW,258,7.0,22.0,81,0.00,,,0.00,WUHU216DAVISVP2,2013-01-03 16:24:00,
2013-01-03 11:25:00,25.4,20.4,29.35,West,268,12.0,22.0,81,0.00,,,0.00,WUHU216DAVISVP2,2013-01-03 16:25:00,
2013-01-03 11:26:00,25.4,20.4,29.35,West,259,8.0,22.0,81,0.00,,,0.00,WUHU216DAVISVP2,2013-01-03 16:26:00,
2013-01-03 11:29:00,25.5,20.8,29.34,West,275,14.0,22.0,82,0.00,,,0.00,WUHU216DAVISVP2,2013-01-03 16:29:00,
2013-01-03 11:31:00,25.5,20.8,29.35,WNW,297,10.0,22.0,82,0.00,,,0.00,WUHU216DAVISVP2,2013-01-03 16:31:00,
2013-01-03 11:32:00,25.5,20.8,29.35,WSW,251,13.0,22.0,82,0.00,,,0.00,WUHU216DAVISVP2,2013-01-03 16:32:00,
2013-01-03 11:34:00,25.5,20.8,29.35,West,270,13.0,22.0,82,0.00,,,0.00,WUHU216DAVISVP2,2013-01-03 16:34:00,
2013-01-03 11:36:00,25.4,20.4,29.35,WSW,245,12.0,22.0,81,0.00,,,0.00,WUHU216DAVISVP2,2013-01-03 16:36:00,
2013-01-03 11:37:00,25.4,20.7,29.35,WSW,251,12.0,22.0,82,0.00,,,0.00,WUHU216DAVISVP2,2013-01-03 16:37:00,
2013-01-03 11:39:00,25.4,20.7,29.35,West,266,12.0,22.0,82,0.00,,,0.00,WUHU216DAVISVP2,2013-01-03 16:39:00,
2013-01-03 11:41:00,25.4,20.7,29.35,West,261,11.0,22.0,82,0.00,,,0.00,WUHU216DAVISVP2,2013-01-03 16:41:00,
2013-01-03 11:42:00,25.4,20.4,29.35,WSW,258,8.0,22.0,81,0.00,,,0.00,WUHU216DAVISVP2,2013-01-03 16:42:00,
2013-01-03 11:44:00,25.5,20.8,29.35,West,260,14.0,22.0,82,0.00,,,0.00,WUHU216DAVISVP2,2013-01-03 16:44:00,
2013-01-03 11:46:00,25.5,20.8,29.35,WSW,258,16.0,22.0,82,0.00,,,0.00,WUHU216DAVISVP2,2013-01-03 16:46:00,
2013-01-03 11:47:00,25.5,20.8,29.35,West,270,12.0,22.0,82,0.00,,,0.00,WUHU216DAVISVP2,2013-01-03 16:47:00,
2013-01-03 11:49:00,25.6,20.9,29.35,West,281,11.0,21.0,82,0.00,,,0.00,WUHU216DAVISVP2,2013-01-03 16:49:00,
2013-01-03 11:51:00,25.6,20.9,29.34,West,261,15.0,21.0,82,0.00,,,0.00,WUHU216DAVISVP2,2013-01-03 16:51:00,
2013-01-03 11:52:00,25.6,20.9,29.34,West,270,14.0,21.0,82,0.00,,,0.00,WUHU216DAVISVP2,2013-01-03 16:52:00,
2013-01-03 11:54:00,25.5,20.8,29.34,West,279,6.0,21.0,82,0.00,,,0.00,WUHU216DAVISVP2,2013-01-03 16:54:00,
2013-01-03 11:56:00,25.6,20.9,29.34,WSW,258,13.0,21.0,82,0.00,,,0.00,WUHU216DAVISVP2,2013-01-03 16:56:00,
2013-01-03 11:57:00,25.6,20.9,29.34,West,266,11.0,21.0,82,0.00,,,0.00,WUHU216DAVISVP2,2013-01-03 16:57:00,
2013-01-03 11:59:00,25.6,20.9,29.34,WNW,283,9.0,21.0,82,0.00,,,0.00,WUHU216DAVISVP2,2013-01-03 16:59:00,
2013-01-03 12:00:00,25.6,20.9,29.34,West,264,12.0,21.0,82,0.00,,,0.00,WUHU216DAVISVP2,2013-01-03 17:00:00,
2013-01-03 12:01:00,25.6,20.9,29.34,West,260,8.0,21.0,82,0.00,,,0.00,WUHU216DAVISVP2,2013-01-03 17:01:00,
2013-01-03 12:02:00,25.6,20.9,29.34,West,276,15.0,21.0,82,0.00,,,0.00,WUHU216DAVISVP2,2013-01-03 17:02:00,
2013-01-03 12:04:00,25.7,21.0,29.34,WNW,287,6.0,21.0,82,0.00,,,0.00,WUHU216DAVISVP2,2013-01-03 17:04:00,
2013-01-03 12:05:00,25.7,21.0,29.34,West,269,7.0,21.0,82,0.00,,,0.00,WUHU216DAVISVP2,2013-01-03 17:05:00,
2013-01-03 12:06:00,25.7,21.0,29.34,West,276,7.0,21.0,82,0.00,,,0.00,WUHU216DAVISVP2,2013-01-03 17:06:00,
2013-01-03 12:08:00,25.8,21.1,29.34,West,266,15.0,21.0,82,0.00,,,0.00,WUHU216DAVISVP2,2013-01-03 17:08:00,
2013-01-03 12:10:00,25.8,21.1,29.34,West,279,10.0,21.0,82,0.00,,,0.00,WUHU216DAVISVP2,2013-01-03 17:10:00,
2013-01-03 12:11:00,25.8,21.1,29.34,WSW,256,9.0,19.0,82,0.00,,,0.00,WUHU216DAVISVP2,2013-01-03 17:11:00,
2013-01-03 12:13:00,25.9,21.2,29.34,WSW,249,7.0,19.0,82,0.00,,,0.00,WUHU216DAVISVP2,2013-01-03 17:13:00,
2013-01-03 12:15:00,26.0,21.2,29.34,West,266,9.0,18.0,82,0.00,,,0.00,WUHU216DAVISVP2,2013-01-03 17:15:00,
2013-01-03 12:16:00,26.0,21.2,29.33,West,274,8.0,18.0,82,0.00,,,0.00,WUHU216DAVISVP2,2013-01-03 17:16:00,
2013-01-03 12:18:00,26.1,21.3,29.33,West,272,10.0,18.0,82,0.00,,,0.00,WUHU216DAVISVP2,2013-01-03 17:18:00,
2013-01-03 12:20:00,26.1,21.3,29.33,WSW,256,12.0,16.0,82,0.00,,,0.00,WUHU216DAVISVP2,2013-01-03 17:20:00,
2013-01-03 12:21:00,26.2,21.4,29.33,West,272,9.0,16.0,82,0.00,,,0.00,WUHU216DAVISVP2,2013-01-03 17:21:00,
2013-01-03 12:22:00,26.2,21.4,29.33,West,269,11.0,16.0,82,0.00,,,0.00,WUHU216DAVISVP2,2013-01-03 17:22:00,
2013-01-03 12:23:00,26.2,21.4,29.33,West,259,13.0,16.0,82,0.00,,,0.00,WUHU216DAVISVP2,2013-01-03 17:23:00,
2013-01-03 12:25:00,26.3,21.5,29.33,West,268,9.0,16.0,82,0.00,,,0.00,WUHU216DAVISVP2,2013-01-03 17:25:00,
2013-01-03 12:26:00,26.3,21.5,29.33,WSW,251,14.0,16.0,82,0.00,,,0.00,WUHU216DAVISVP2,2013-01-03 17:26:00,
2013-01-03 12:27:00,26.4,21.6,29.33,West,262,5.0,16.0,82,0.00,,,0.00,WUHU216DAVISVP2,2013-01-03 17:27:00,
2013-01-03 12:28:00,26.5,21.7,29.33,West,266,9.0,16.0,82,0.00,,,0.00,WUHU216DAVISVP2,2013-01-03 17:28:00,
2013-01-03 12:30:00,26.6,21.8,29.33,West,273,10.0,16.0,82,0.00,,,0.00,WUHU216DAVISVP2,2013-01-03 17:30:00,
2013-01-03 12:31:00,26.7,21.9,29.33,WNW,286,6.0,16.0,82,0.00,,,0.00,WUHU216DAVISVP2,2013-01-03 17:31:00,
2013-01-03 12:32:00,26.8,22.0,29.33,WSW,257,11.0,16.0,82,0.00,,,0.00,WUHU216DAVISVP2,2013-01-03 17:32:00,
2013-01-03 12:33:00,26.8,22.0,29.33,WNW,283,8.0,16.0,82,0.00,,,0.00,WUHU216DAVISVP2,2013-01-03 17:33:00,
2013-01-03 12:35:00,26.9,22.1,29.33,WSW,258,10.0,14.0,82,0.00,,,0.00,WUHU216DAVISVP2,2013-01-03 17:35:00,
2013-01-03 12:36:00,26.9,21.8,29.33,West,262,12.0,14.0,81,0.00,,,0.00,WUHU216DAVISVP2,2013-01-03 17:36:00,
2013-01-03 12:37:00,26.9,21.8,29.33,WSW,249,7.0,14.0,81,0.00,,,0.00,WUHU216DAVISVP2,2013-01-03 17:37:00,
2013-01-03 12:38:00,27.0,21.9,29.33,West,266,11.0,14.0,81,0.00,,,0.00,WUHU216DAVISVP2,2013-01-03 17:38:00,
2013-01-03 12:40:00,27.1,22.0,29.34,WNW,285,18.0,18.0,81,0.00,,,0.00,WUHU216DAVISVP2,2013-01-03 17:40:00,
2013-01-03 12:41:00,27.1,22.0,29.34,West,269,12.0,18.0,81,0.00,,,0.00,WUHU216DAVISVP2,2013-01-03 17:41:00,
2013-01-03 12:42:00,27.2,22.1,29.34,WNW,291,13.0,18.0,81,0.00,,,0.00,WUHU216DAVISVP2,2013-01-03 17:42:00,
2013-01-03 12:43:00,27.3,22.5,29.34,West,280,11.0,18.0,82,0.00,,,0.00,WUHU216DAVISVP2,2013-01-03 17:43:00,
2013-01-03 12:45:00,27.3,22.2,29.34,WNW,285,10.0,18.0,81,0.00,,,0.00,WUHU216DAVISVP2,2013-01-03 17:45:00,
2013-01-03 12:46:00,27.3,22.2,29.34,WNW,282,8.0,18.0,81,0.00,,,0.00,WUHU216DAVISVP2,2013-01-03 17:46:00,
2013-01-03 12:47:00,27.4,22.3,29.34,West,278,11.0,18.0,81,0.00,,,0.00,WUHU216DAVISVP2,2013-01-03 17:47:00,
2013-01-03 12:48:00,27.4,22.3,29.34,WNW,296,8.0,18.0,81,0.00,,,0.00,WUHU216DAVISVP2,2013-01-03 17:48:00,
2013-01-03 12:50:00,27.5,22.4,29.34,West,278,11.0,18.0,81,0.00,,,0.00,WUHU216DAVISVP2,2013-01-03 17:50:00,
2013-01-03 12:51:00,27.5,22.4,29.34,West,277,12.0,18.0,81,0.00,,,0.00,WUHU216DAVISVP2,2013-01-03 17:51:00,
2013-01-03 12:53:00,27.5,22.4,29.34,WNW,289,14.0,18.0,81,0.00,,,0.00,WUHU216DAVISVP2,2013-01-03 17:53:00,
2013-01-03 12:56:00,27.6,22.5,29.34,West,280,10.0,18.0,81,0.00,,,0.00,WUHU216DAVISVP2,2013-01-03 17:56:00,
2013-01-03 12:58:00,27.7,22.6,29.34,West,276,7.0,18.0,81,0.00,,,0.00,WUHU216DAVISVP2,2013-01-03 17:58:00,
2013-01-03 12:59:00,27.7,22.6,29.33,West,278,8.0,18.0,81,0.00,,,0.00,WUHU216DAVISVP2,2013-01-03 17:59:00,
2013-01-03 13:01:00,27.8,22.7,29.33,West,266,7.0,16.0,81,0.00,,,0.00,WUHU216DAVISVP2,2013-01-03 18:01:00,
2013-01-03 13:03:00,27.9,22.8,29.33,WNW,293,9.0,18.0,81,0.00,,,0.00,WUHU216DAVISVP2,2013-01-03 18:03:00,
2013-01-03 13:04:00,27.9,22.8,29.33,WNW,290,9.0,18.0,81,0.00,,,0.00,WUHU216DAVISVP2,2013-01-03 18:04:00,
2013-01-03 13:06:00,28.0,22.9,29.33,West,276,15.0,18.0,81,0.00,,,0.00,WUHU216DAVISVP2,2013-01-03 18:06:00,
2013-01-03 13:08:00,28.0,22.6,29.33,West,270,21.0,21.0,80,0.00,,,0.00,WUHU216DAVISVP2,2013-01-03 18:08:00,
2013-01-03 13:09:00,28.0,22.6,29.33,WNW,282,16.0,21.0,80,0.00,,,0.00,WUHU216DAVISVP2,2013-01-03 18:09:00,
2013-01-03 13:11:00,28.0,22.6,29.33,West,274,11.0,21.0,80,0.00,,,0.00,WUHU216DAVISVP2,2013-01-03 18:11:00,
2013-01-03 13:13:00,28.1,22.7,29.33,WNW,282,11.0,21.0,80,0.00,,,0.00,WUHU216DAVISVP2,2013-01-03 18:13:00,
2013-01-03 13:14:00,28.1,23.0,29.33,WNW,286,12.0,21.0,81,0.00,,,0.00,WUHU216DAVISVP2,2013-01-03 18:14:00,
2013-01-03 13:16:00,28.2,22.8,29.33,WNW,295,13.0,21.0,80,0.00,,,0.00,WUHU216DAVISVP2,2013-01-03 18:16:00,
2013-01-03 13:18:00,28.3,22.9,29.33,West,281,15.0,21.0,80,0.00,,,0.00,WUHU216DAVISVP2,2013-01-03 18:18:00,
2013-01-03 13:19:00,28.3,22.9,29.33,West,276,9.0,21.0,80,0.00,,,0.00,WUHU216DAVISVP2,2013-01-03 18:19:00,
2013-01-03 13:22:00,28.4,23.0,29.32,West,269,12.0,21.0,80,0.00,,,0.00,WUHU216DAVISVP2,2013-01-03 18:22:00,
2013-01-03 13:24:00,28.5,23.1,29.32,West,277,13.0,21.0,80,0.00,,,0.00,WUHU216DAVISVP2,2013-01-03 18:24:00,
2013-01-03 13:27:00,28.7,23.3,29.33,WNW,285,11.0,21.0,80,0.00,,,0.00,WUHU216DAVISVP2,2013-01-03 18:27:00,
2013-01-03 13:29:00,28.7,23.3,29.32,West,265,15.0,21.0,80,0.00,,,0.00,WUHU216DAVISVP2,2013-01-03 18:29:00,
2013-01-03 13:32:00,28.7,23.3,29.32,West,274,8.0,21.0,80,0.00,,,0.00,WUHU216DAVISVP2,2013-01-03 18:32:00,
2013-01-03 13:34:00,28.8,23.4,29.32,WNW,286,14.0,21.0,80,0.00,,,0.00,WUHU216DAVISVP2,2013-01-03 18:34:00,
2013-01-03 13:35:00,28.9,23.5,29.32,West,268,10.0,21.0,80,0.00,,,0.00,WUHU216DAVISVP2,2013-01-03 18:35:00,
2013-01-03 13:37:00,29.0,23.6,29.32,WNW,293,8.0,21.0,80,0.00,,,0.00,WUHU216DAVISVP2,2013-01-03 18:37:00,
2013-01-03 13:39:00,29.0,23.6,29.32,West,276,6.0,21.0,80,0.00,,,0.00,WUHU216DAVISVP2,2013-01-03 18:39:00,
2013-01-03 13:40:00,29.0,23.6,29.32,WNW,299,7.0,21.0,80,0.00,,,0.00,WUHU216DAVISVP2,2013-01-03 18:40:00,
2013-01-03 13:42:00,29.0,23.6,29.32,WSW,256,8.0,21.0,80,0.00,,,0.00,WUHU216DAVISVP2,2013-01-03 18:42:00,
2013-01-03 13:43:00,29.0,23.6,29.32,WSW,243,10.0,21.0,80,0.00,,,0.00,WUHU216DAVISVP2,2013-01-03 18:43:00,
2013-01-03 13:44:00,29.0,23.6,29.32,WNW,289,6.0,18.0,80,0.00,,,0.00,WUHU216DAVISVP2,2013-01-03 18:44:00,
2013-01-03 13:45:00,29.0,23.6,29.32,WNW,285,18.0,18.0,80,0.00,,,0.00,WUHU216DAVISVP2,2013-01-03 18:45:00,
2013-01-03 13:47:00,28.8,23.4,29.32,WNW,285,12.0,21.0,80,0.00,,,0.00,WUHU216DAVISVP2,2013-01-03 18:47:00,
2013-01-03 13:48:00,28.7,23.3,29.32,West,266,7.0,21.0,80,0.00,,,0.00,WUHU216DAVISVP2,2013-01-03 18:48:00,
2013-01-03 13:49:00,28.7,23.3,29.32,West,273,12.0,21.0,80,0.00,,,0.00,WUHU216DAVISVP2,2013-01-03 18:49:00,
2013-01-03 13:50:00,28.7,23.6,29.32,WNW,285,9.0,21.0,81,0.00,,,0.00,WUHU216DAVISVP2,2013-01-03 18:50:00,
2013-01-03 13:53:00,28.7,23.6,29.32,West,264,8.0,21.0,81,0.00,,,0.00,WUHU216DAVISVP2,2013-01-03 18:53:00,
2013-01-03 13:54:00,28.6,23.5,29.32,West,264,9.0,21.0,81,0.00,,,0.00,WUHU216DAVISVP2,2013-01-03 18:54:00,
2013-01-03 13:55:00,28.6,23.5,29.32,West,277,8.0,21.0,81,0.00,,,0.00,WUHU216DAVISVP2,2013-01-03 18:55:00,
2013-01-03 13:58:00,28.6,23.8,29.32,West,260,9.0,21.0,82,0.00,,,0.00,WUHU216DAVISVP2,2013-01-03 18:58:00,
2013-01-03 13:59:00,28.6,23.8,29.32,WSW,251,11.0,21.0,82,0.00,,,0.00,WUHU216DAVISVP2,2013-01-03 18:59:00,
2013-01-03 14:01:00,28.6,23.8,29.32,West,265,9.0,21.0,82,0.00,,,0.00,WUHU216DAVISVP2,2013-01-03 19:01:00,
2013-01-03 14:03:00,28.6,23.8,29.32,WNW,289,6.0,21.0,82,0.00,,,0.00,WUHU216DAVISVP2,2013-01-03 19:03:00,
2013-01-03 14:04:00,28.7,23.9,29.32,WNW,287,6.0,21.0,82,0.00,,,0.00,WUHU216DAVISVP2,2013-01-03 19:04:00,
2013-01-03 14:06:00,28.7,23.9,29.33,West,271,5.0,16.0,82,0.00,,,0.00,WUHU216DAVISVP2,2013-01-03 19:06:00,
2013-01-03 14:08:00,28.7,23.6,29.33,West,262,9.0,16.0,81,0.00,,,0.00,WUHU216DAVISVP2,2013-01-03 19:08:00,
2013-01-03 14:09:00,28.7,23.9,29.33,West,262,7.0,16.0,82,0.00,,,0.00,WUHU216DAVISVP2,2013-01-03 19:09:00,
2013-01-03 14:11:00,28.7,23.6,29.33,West,266,8.0,16.0,81,0.00,,,0.00,WUHU216DAVISVP2,2013-01-03 19:11:00,
2013-01-03 14:13:00,28.7,23.6,29.33,West,263,9.0,14.0,81,0.00,,,0.00,WUHU216DAVISVP2,2013-01-03 19:13:00,
2013-01-03 14:14:00,28.7,23.6,29.33,West,267,11.0,13.0,81,0.00,,,0.00,WUHU216DAVISVP2,2013-01-03 19:14:00,
2013-01-03 14:16:00,28.7,23.6,29.33,West,267,7.0,15.0,81,0.00,,,0.00,WUHU216DAVISVP2,2013-01-03 19:16:00,
2013-01-03 14:18:00,28.7,23.6,29.33,West,274,11.0,15.0,81,0.00,,,0.00,WUHU216DAVISVP2,2013-01-03 19:18:00,
2013-01-03 14:51:00,29.5,24.4,29.33,West,278,11.0,16.0,81,0.00,,,0.00,WUHU216DAVISVP2,2013-01-03 19:51:00,
2013-01-03 14:52:00,29.5,24.4,29.33,WNW,299,8.0,16.0,81,0.00,,,0.00,WUHU216DAVISVP2,2013-01-03 19:52:00,
2013-01-03 14:54:00,29.5,24.4,29.33,West,279,6.0,16.0,81,0.00,,,0.00,WUHU216DAVISVP2,2013-01-03 19:54:00,
2013-01-03 14:57:00,29.6,24.5,29.33,WNW,289,5.0,16.0,81,0.00,,,0.00,WUHU216DAVISVP2,2013-01-03 19:57:00,
2013-01-03 14:59:00,29.7,24.6,29.33,WNW,283,11.0,16.0,81,0.00,,,0.00,WUHU216DAVISVP2,2013-01-03 19:59:00,
2013-01-03 15:02:00,29.7,24.6,29.33,WNW,282,7.0,16.0,81,0.00,,,0.00,WUHU216DAVISVP2,2013-01-03 20:02:00,
2013-01-03 15:04:00,29.7,24.6,29.33,WNW,289,13.0,15.0,81,0.00,,,0.00,WUHU216DAVISVP2,2013-01-03 20:04:00,
2013-01-03 15:07:00,29.8,24.7,29.33,WNW,297,9.0,15.0,81,0.00,,,0.00,WUHU216DAVISVP2,2013-01-03 20:07:00,
2013-01-03 15:09:00,29.8,24.7,29.34,West,277,15.0,15.0,81,0.00,,,0.00,WUHU216DAVISVP2,2013-01-03 20:09:00,
2013-01-03 15:12:00,29.9,24.8,29.33,WNW,292,8.0,18.0,81,0.00,,,0.00,WUHU216DAVISVP2,2013-01-03 20:12:00,
2013-01-03 15:14:00,29.9,24.8,29.34,WNW,290,8.0,18.0,81,0.00,,,0.00,WUHU216DAVISVP2,2013-01-03 20:14:00,
2013-01-03 15:17:00,29.9,24.8,29.34,WNW,283,8.0,18.0,81,0.00,,,0.00,WUHU216DAVISVP2,2013-01-03 20:17:00,
2013-01-03 15:18:00,29.9,24.8,29.34,West,274,8.0,18.0,81,0.00,,,0.00,WUHU216DAVISVP2,2013-01-03 20:18:00,
2013-01-03 15:19:00,29.9,24.8,29.34,WNW,292,12.0,18.0,81,0.00,,,0.00,WUHU216DAVISVP2,2013-01-03 20:19:00,
2013-01-03 15:20:00,29.9,24.8,29.34,West,276,10.0,18.0,81,0.00,,,0.00,WUHU216DAVISVP2,2013-01-03 20:20:00,
2013-01-03 15:22:00,29.9,24.8,29.34,West,277,8.0,18.0,81,0.00,,,0.00,WUHU216DAVISVP2,2013-01-03 20:22:00,
2013-01-03 15:23:00,29.9,24.8,29.34,West,261,8.0,18.0,81,0.00,,,0.00,WUHU216DAVISVP2,2013-01-03 20:23:00,
2013-01-03 15:24:00,29.9,24.8,29.34,WNW,296,6.0,18.0,81,0.00,,,0.00,WUHU216DAVISVP2,2013-01-03 20:24:00,
2013-01-03 15:25:00,29.9,24.8,29.34,WNW,296,5.0,18.0,81,0.00,,,0.00,WUHU216DAVISVP2,2013-01-03 20:25:00,
2013-01-03 15:28:00,29.9,24.8,29.34,West,261,11.0,18.0,81,0.00,,,0.00,WUHU216DAVISVP2,2013-01-03 20:28:00,
2013-01-03 15:30:00,30.0,24.9,29.34,WNW,293,7.0,16.0,81,0.00,,,0.00,WUHU216DAVISVP2,2013-01-03 20:30:00,
2013-01-03 15:33:00,30.0,25.2,29.34,West,274,9.0,16.0,82,0.00,,,0.00,WUHU216DAVISVP2,2013-01-03 20:33:00,
2013-01-03 15:35:00,30.0,25.2,29.34,West,278,11.0,16.0,82,0.00,,,0.00,WUHU216DAVISVP2,2013-01-03 20:35:00,
2013-01-03 15:38:00,30.0,25.2,29.35,West,279,11.0,16.0,82,0.00,,,0.00,WUHU216DAVISVP2,2013-01-03 20:38:00,
2013-01-03 15:40:00,30.0,25.2,29.35,West,279,9.0,14.0,82,0.00,,,0.00,WUHU216DAVISVP2,2013-01-03 20:40:00,
2013-01-03 15:43:00,30.0,25.2,29.35,West,262,10.0,14.0,82,0.00,,,0.00,WUHU216DAVISVP2,2013-01-03 20:43:00,
2013-01-03 15:45:00,29.9,25.1,29.35,West,268,11.0,14.0,82,0.00,,,0.00,WUHU216DAVISVP2,2013-01-03 20:45:00,
2013-01-03 15:48:00,29.9,25.1,29.35,West,265,12.0,15.0,82,0.00,,,0.00,WUHU216DAVISVP2,2013-01-03 20:48:00,
2013-01-03 15:50:00,29.9,25.1,29.35,West,266,7.0,15.0,82,0.00,,,0.00,WUHU216DAVISVP2,2013-01-03 20:50:00,
2013-01-03 15:51:00,29.9,25.4,29.35,West,274,10.0,15.0,83,0.00,,,0.00,WUHU216DAVISVP2,2013-01-03 20:51:00,
2013-01-03 15:53:00,29.9,25.4,29.35,WNW,289,6.0,15.0,83,0.00,,,0.00,WUHU216DAVISVP2,2013-01-03 20:53:00,
2013-01-03 15:54:00,29.9,25.4,29.35,WSW,249,9.0,15.0,83,0.00,,,0.00,WUHU216DAVISVP2,2013-01-03 20:54:00,
2013-01-03 15:55:00,29.9,25.4,29.35,WSW,256,11.0,15.0,83,0.00,,,0.00,WUHU216DAVISVP2,2013-01-03 20:55:00,
2013-01-03 15:56:00,29.9,25.4,29.35,West,276,13.0,15.0,83,0.00,,,0.00,WUHU216DAVISVP2,2013-01-03 20:56:00,
2013-01-03 15:58:00,29.9,25.4,29.35,West,281,10.0,18.0,83,0.00,,,0.00,WUHU216DAVISVP2,2013-01-03 20:58:00,
2013-01-03 15:59:00,29.9,25.4,29.35,West,265,12.0,18.0,83,0.00,,,0.00,WUHU216DAVISVP2,2013-01-03 20:59:00,
2013-01-03 16:00:00,29.9,25.4,29.35,WNW,287,5.0,18.0,83,0.00,,,0.00,WUHU216DAVISVP2,2013-01-03 21:00:00,
2013-01-03 16:01:00,29.9,25.4,29.35,West,264,8.0,18.0,83,0.00,,,0.00,WUHU216DAVISVP2,2013-01-03 21:01:00,
2013-01-03 16:03:00,29.9,25.4,29.35,West,265,9.0,18.0,83,0.00,,,0.00,WUHU216DAVISVP2,2013-01-03 21:03:00,
2013-01-03 16:04:00,29.9,25.4,29.35,West,264,10.0,18.0,83,0.00,,,0.00,WUHU216DAVISVP2,2013-01-03 21:04:00,
2013-01-03 16:05:00,29.9,25.4,29.35,WSW,251,11.0,18.0,83,0.00,,,0.00,WUHU216DAVISVP2,2013-01-03 21:05:00,
2013-01-03 16:06:00,29.9,25.4,29.35,West,277,6.0,18.0,83,0.00,,,0.00,WUHU216DAVISVP2,2013-01-03 21:06:00,
2013-01-03 16:09:00,29.9,25.6,29.35,WSW,253,9.0,18.0,84,0.00,,,0.00,WUHU216DAVISVP2,2013-01-03 21:09:00,
2013-01-03 16:10:00,29.9,25.6,29.35,West,270,6.0,18.0,84,0.00,,,0.00,WUHU216DAVISVP2,2013-01-03 21:10:00,
2013-01-03 16:11:00,29.9,25.6,29.35,West,272,6.0,18.0,84,0.00,,,0.00,WUHU216DAVISVP2,2013-01-03 21:11:00,
2013-01-03 16:14:00,29.8,25.5,29.36,WNW,293,6.0,18.0,84,0.00,,,0.00,WUHU216DAVISVP2,2013-01-03 21:14:00,
2013-01-03 16:15:00,29.8,25.5,29.35,West,266,8.0,15.0,84,0.00,,,0.00,WUHU216DAVISVP2,2013-01-03 21:15:00,
2013-01-03 16:16:00,29.8,25.5,29.35,WNW,298,7.0,15.0,84,0.00,,,0.00,WUHU216DAVISVP2,2013-01-03 21:16:00,
2013-01-03 16:19:00,29.8,25.5,29.35,West,269,8.0,14.0,84,0.00,,,0.00,WUHU216DAVISVP2,2013-01-03 21:19:00,
2013-01-03 16:21:00,29.9,25.7,29.35,WNW,285,12.0,14.0,84,0.00,,,0.00,WUHU216DAVISVP2,2013-01-03 21:21:00,
2013-01-03 16:24:00,29.9,25.7,29.35,WNW,285,9.0,20.0,84,0.00,,,0.00,WUHU216DAVISVP2,2013-01-03 21:24:00,
2013-01-03 16:26:00,30.0,25.7,29.36,WSW,256,8.0,20.0,84,0.00,,,0.00,WUHU216DAVISVP2,2013-01-03 21:26:00,
2013-01-03 16:29:00,30.1,25.8,29.36,West,278,12.0,20.0,84,0.00,,,0.00,WUHU216DAVISVP2,2013-01-03 21:29:00,
2013-01-03 16:31:00,30.1,25.8,29.36,West,270,10.0,20.0,84,0.00,,,0.00,WUHU216DAVISVP2,2013-01-03 21:31:00,
2013-01-03 16:34:00,30.1,25.8,29.36,West,264,9.0,20.0,84,0.00,,,0.00,WUHU216DAVISVP2,2013-01-03 21:34:00,
2013-01-03 16:36:00,30.1,25.8,29.36,WNW,289,10.0,20.0,84,0.00,,,0.00,WUHU216DAVISVP2,2013-01-03 21:36:00,
2013-01-03 16:37:00,30.1,25.8,29.36,WNW,285,12.0,20.0,84,0.00,,,0.00,WUHU216DAVISVP2,2013-01-03 21:37:00,
2013-01-03 16:39:00,30.2,25.9,29.36,West,281,8.0,20.0,84,0.00,,,0.00,WUHU216DAVISVP2,2013-01-03 21:39:00,
2013-01-03 16:42:00,30.2,25.7,29.36,NW,306,13.0,18.0,83,0.00,,,0.00,WUHU216DAVISVP2,2013-01-03 21:42:00,
2013-01-03 16:43:00,30.2,25.9,29.36,West,271,9.0,18.0,84,0.00,,,0.00,WUHU216DAVISVP2,2013-01-03 21:43:00,
2013-01-03 16:44:00,30.2,25.7,29.36,WNW,283,8.0,18.0,83,0.00,,,0.00,WUHU216DAVISVP2,2013-01-03 21:44:00,
2013-01-03 16:47:00,30.2,25.7,29.36,WNW,287,12.0,18.0,83,0.00,,,0.00,WUHU216DAVISVP2,2013-01-03 21:47:00,
2013-01-03 16:48:00,30.2,25.7,29.36,West,278,12.0,18.0,83,0.00,,,0.00,WUHU216DAVISVP2,2013-01-03 21:48:00,
2013-01-03 16:49:00,30.2,25.7,29.36,WNW,297,10.0,18.0,83,0.00,,,0.00,WUHU216DAVISVP2,2013-01-03 21:49:00,
2013-01-03 16:50:00,30.3,25.8,29.36,WNW,287,9.0,18.0,83,0.00,,,0.00,WUHU216DAVISVP2,2013-01-03 21:50:00,
2013-01-03 16:53:00,30.3,25.5,29.36,West,276,14.0,18.0,82,0.00,,,0.00,WUHU216DAVISVP2,2013-01-03 21:53:00,
2013-01-03 16:54:00,30.3,25.5,29.36,NW,322,9.0,18.0,82,0.00,,,0.00,WUHU216DAVISVP2,2013-01-03 21:54:00,
2013-01-03 16:55:00,30.3,25.5,29.36,WNW,282,16.0,18.0,82,0.00,,,0.00,WUHU216DAVISVP2,2013-01-03 21:55:00,
2013-01-03 16:58:00,30.4,25.6,29.36,WNW,301,10.0,18.0,82,0.00,,,0.00,WUHU216DAVISVP2,2013-01-03 21:58:00,
2013-01-03 16:59:00,30.4,25.6,29.36,West,276,11.0,18.0,82,0.00,,,0.00,WUHU216DAVISVP2,2013-01-03 21:59:00,
2013-01-03 17:00:00,30.4,25.6,29.36,NW,312,11.0,18.0,82,0.00,,,0.00,WUHU216DAVISVP2,2013-01-03 22:00:00,
2013-01-03 17:03:00,30.4,25.6,29.37,WNW,287,10.0,18.0,82,0.00,,,0.00,WUHU216DAVISVP2,2013-01-03 22:03:00,
2013-01-03 17:04:00,30.4,25.6,29.37,WNW,287,11.0,18.0,82,0.00,,,0.00,WUHU216DAVISVP2,2013-01-03 22:04:00,
2013-01-03 17:05:00,30.4,25.6,29.37,WNW,282,9.0,18.0,82,0.00,,,0.00,WUHU216DAVISVP2,2013-01-03 22:05:00,
2013-01-03 17:08:00,30.4,25.6,29.37,WNW,291,7.0,18.0,82,0.00,,,0.00,WUHU216DAVISVP2,2013-01-03 22:08:00,
2013-01-03 17:10:00,30.4,25.6,29.37,West,276,7.0,18.0,82,0.00,,,0.00,WUHU216DAVISVP2,2013-01-03 22:10:00,
2013-01-03 17:13:00,30.4,25.6,29.37,WNW,293,6.0,18.0,82,0.00,,,0.00,WUHU216DAVISVP2,2013-01-03 22:13:00,
2013-01-03 17:15:00,30.4,25.6,29.37,WNW,299,11.0,18.0,82,0.00,,,0.00,WUHU216DAVISVP2,2013-01-03 22:15:00,
2013-01-03 17:18:00,30.5,25.4,29.37,WNW,286,9.0,18.0,81,0.00,,,0.00,WUHU216DAVISVP2,2013-01-03 22:18:00,
2013-01-03 17:19:00,30.5,25.4,29.37,West,273,8.0,18.0,81,0.00,,,0.00,WUHU216DAVISVP2,2013-01-03 22:19:00,
2013-01-03 17:20:00,30.5,25.4,29.37,WNW,297,12.0,18.0,81,0.00,,,0.00,WUHU216DAVISVP2,2013-01-03 22:20:00,
2013-01-03 17:23:00,30.5,25.4,29.37,WNW,297,9.0,18.0,81,0.00,,,0.00,WUHU216DAVISVP2,2013-01-03 22:23:00,
2013-01-03 17:24:00,30.5,25.4,29.37,WNW,296,9.0,18.0,81,0.00,,,0.00,WUHU216DAVISVP2,2013-01-03 22:24:00,
2013-01-03 17:25:00,30.5,25.4,29.37,WNW,287,9.0,18.0,81,0.00,,,0.00,WUHU216DAVISVP2,2013-01-03 22:25:00,
2013-01-03 17:29:00,30.4,25.3,29.37,West,278,10.0,18.0,81,0.00,,,0.00,WUHU216DAVISVP2,2013-01-03 22:29:00,
2013-01-03 17:30:00,30.4,25.3,29.37,WNW,290,8.0,18.0,81,0.00,,,0.00,WUHU216DAVISVP2,2013-01-03 22:30:00,
2013-01-03 17:31:00,30.4,25.3,29.37,West,279,8.0,18.0,81,0.00,,,0.00,WUHU216DAVISVP2,2013-01-03 22:31:00,
2013-01-03 17:34:00,30.4,25.3,29.37,WNW,289,11.0,20.0,81,0.00,,,0.00,WUHU216DAVISVP2,2013-01-03 22:34:00,
2013-01-03 17:35:00,30.5,25.1,29.37,WNW,295,7.0,20.0,80,0.00,,,0.00,WUHU216DAVISVP2,2013-01-03 22:35:00,
2013-01-03 17:36:00,30.5,25.1,29.37,WNW,282,14.0,20.0,80,0.00,,,0.00,WUHU216DAVISVP2,2013-01-03 22:36:00,
2013-01-03 17:39:00,30.5,25.1,29.37,WNW,293,10.0,20.0,80,0.00,,,0.00,WUHU216DAVISVP2,2013-01-03 22:39:00,
2013-01-03 17:40:00,30.5,25.1,29.37,WNW,297,11.0,20.0,80,0.00,,,0.00,WUHU216DAVISVP2,2013-01-03 22:40:00,
2013-01-03 17:41:00,30.5,25.1,29.37,WNW,289,11.0,20.0,80,0.00,,,0.00,WUHU216DAVISVP2,2013-01-03 22:41:00,
2013-01-03 17:44:00,30.4,25.0,29.37,WNW,283,14.0,20.0,80,0.00,,,0.00,WUHU216DAVISVP2,2013-01-03 22:44:00,
2013-01-03 17:45:00,30.4,25.0,29.37,WNW,291,7.0,20.0,80,0.00,,,0.00,WUHU216DAVISVP2,2013-01-03 22:45:00,
2013-01-03 17:46:00,30.4,25.0,29.38,NW,306,10.0,20.0,80,0.00,,,0.00,WUHU216DAVISVP2,2013-01-03 22:46:00,
2013-01-03 17:49:00,30.3,24.9,29.38,NW,311,18.0,20.0,80,0.00,,,0.00,WUHU216DAVISVP2,2013-01-03 22:49:00,
2013-01-03 17:50:00,30.3,24.9,29.38,WNW,292,12.0,20.0,80,0.00,,,0.00,WUHU216DAVISVP2,2013-01-03 22:50:00,
2013-01-03 17:51:00,30.3,24.9,29.38,WNW,301,15.0,20.0,80,0.00,,,0.00,WUHU216DAVISVP2,2013-01-03 22:51:00,
2013-01-03 17:54:00,30.3,24.9,29.38,WNW,285,12.0,21.0,80,0.00,,,0.00,WUHU216DAVISVP2,2013-01-03 22:54:00,
2013-01-03 17:55:00,30.2,24.8,29.38,WNW,298,10.0,21.0,80,0.00,,,0.00,WUHU216DAVISVP2,2013-01-03 22:55:00,
2013-01-03 17:56:00,30.2,24.8,29.38,NW,307,12.0,21.0,80,0.00,,,0.00,WUHU216DAVISVP2,2013-01-03 22:56:00,
2013-01-03 17:59:00,30.2,24.8,29.38,WNW,289,13.0,21.0,80,0.00,,,0.00,WUHU216DAVISVP2,2013-01-03 22:59:00,
2013-01-03 18:00:00,30.2,24.8,29.38,WNW,289,8.0,21.0,80,0.00,,,0.00,WUHU216DAVISVP2,2013-01-03 23:00:00,
2013-01-03 18:01:00,30.2,24.8,29.38,NW,307,12.0,21.0,80,0.00,,,0.00,WUHU216DAVISVP2,2013-01-03 23:01:00,
2013-01-03 18:04:00,30.2,24.8,29.38,WNW,283,15.0,21.0,80,0.00,,,0.00,WUHU216DAVISVP2,2013-01-03 23:04:00,
2013-01-03 18:05:00,30.2,24.8,29.38,WNW,300,9.0,21.0,80,0.00,,,0.00,WUHU216DAVISVP2,2013-01-03 23:05:00,
2013-01-03 18:06:00,30.2,24.8,29.38,WNW,293,11.0,21.0,80,0.00,,,0.00,WUHU216DAVISVP2,2013-01-03 23:06:00,
2013-01-03 18:09:00,30.1,24.4,29.38,WNW,289,7.0,21.0,79,0.00,,,0.00,WUHU216DAVISVP2,2013-01-03 23:09:00,
2013-01-03 18:10:00,30.2,24.5,29.38,WNW,288,8.0,21.0,79,0.00,,,0.00,WUHU216DAVISVP2,2013-01-03 23:10:00,
2013-01-03 18:11:00,30.2,24.5,29.38,WNW,289,13.0,21.0,79,0.00,,,0.00,WUHU216DAVISVP2,2013-01-03 23:11:00,
2013-01-03 18:14:00,30.2,24.5,29.38,West,277,9.0,16.0,79,0.00,,,0.00,WUHU216DAVISVP2,2013-01-03 23:14:00,
2013-01-03 18:16:00,30.2,24.5,29.37,West,275,10.0,16.0,79,0.00,,,0.00,WUHU216DAVISVP2,2013-01-03 23:16:00,
2013-01-03 18:19:00,30.2,23.9,29.38,West,268,9.0,16.0,77,0.00,,,0.00,WUHU216DAVISVP2,2013-01-03 23:19:00,
2013-01-03 18:21:00,30.2,23.9,29.38,WNW,295,11.0,16.0,77,0.00,,,0.00,WUHU216DAVISVP2,2013-01-03 23:21:00,
2013-01-03 18:22:00,30.2,23.6,29.38,West,281,14.0,16.0,76,0.00,,,0.00,WUHU216DAVISVP2,2013-01-03 23:22:00,
2013-01-03 18:24:00,30.3,23.7,29.38,WNW,299,15.0,18.0,76,0.00,,,0.00,WUHU216DAVISVP2,2013-01-03 23:24:00,
2013-01-03 18:26:00,30.3,23.7,29.38,NW,310,11.0,20.0,76,0.00,,,0.00,WUHU216DAVISVP2,2013-01-03 23:26:00,
2013-01-03 18:27:00,30.3,23.7,29.38,West,274,22.0,22.0,76,0.00,,,0.00,WUHU216DAVISVP2,2013-01-03 23:27:00,
2013-01-03 18:30:00,30.3,23.4,29.38,West,280,11.0,22.0,75,0.00,,,0.00,WUHU216DAVISVP2,2013-01-03 23:30:00,
2013-01-03 18:31:00,30.3,23.4,29.38,West,271,10.0,22.0,75,0.00,,,0.00,WUHU216DAVISVP2,2013-01-03 23:31:00,
2013-01-03 18:32:00,30.2,23.3,29.38,WNW,299,12.0,22.0,75,0.00,,,0.00,WUHU216DAVISVP2,2013-01-03 23:32:00,
2013-01-03 18:35:00,30.2,23.5,29.38,WNW,289,8.0,22.0,76,0.00,,,0.00,WUHU216DAVISVP2,2013-01-03 23:35:00,
2013-01-03 18:36:00,30.2,23.5,29.38,WNW,293,13.0,22.0,76,0.00,,,0.00,WUHU216DAVISVP2,2013-01-03 23:36:00,
2013-01-03 18:37:00,30.2,23.5,29.38,WNW,297,12.0,22.0,76,0.00,,,0.00,WUHU216DAVISVP2,2013-01-03 23:37:00,
2013-01-03 18:40:00,30.2,23.5,29.38,WNW,301,9.0,22.0,76,0.00,,,0.00,WUHU216DAVISVP2,2013-01-03 23:40:00,
2013-01-03 18:41:00,30.2,23.6,29.38,WNW,292,10.0,22.0,76,0.00,,,0.00,WUHU216DAVISVP2,2013-01-03 23:41:00,
2013-01-03 18:42:00,30.2,23.6,29.38,WNW,285,10.0,22.0,76,0.00,,,0.00,WUHU216DAVISVP2,2013-01-03 23:42:00,
2013-01-03 18:45:00,30.1,23.5,29.38,WNW,301,10.0,22.0,76,0.00,,,0.00,WUHU216DAVISVP2,2013-01-03 23:45:00,
2013-01-03 18:46:00,30.1,23.5,29.38,NW,309,12.0,22.0,76,0.00,,,0.00,WUHU216DAVISVP2,2013-01-03 23:46:00,
2013-01-03 18:47:00,30.1,23.5,29.38,West,275,11.0,19.0,76,0.00,,,0.00,WUHU216DAVISVP2,2013-01-03 23:47:00,
2013-01-03 18:50:00,30.0,23.7,29.38,WNW,291,8.0,19.0,77,0.00,,,0.00,WUHU216DAVISVP2,2013-01-03 23:50:00,
2013-01-03 18:51:00,30.0,23.7,29.38,WNW,287,9.0,19.0,77,0.00,,,0.00,WUHU216DAVISVP2,2013-01-03 23:51:00,
2013-01-03 18:52:00,30.0,23.7,29.38,WNW,288,7.0,19.0,77,0.00,,,0.00,WUHU216DAVISVP2,2013-01-03 23:52:00,
2013-01-03 18:53:00,30.0,23.7,29.38,WNW,291,12.0,19.0,77,0.00,,,0.00,WUHU216DAVISVP2,2013-01-03 23:53:00,
2013-01-03 18:55:00,30.0,23.7,29.38,West,281,7.0,19.0,77,0.00,,,0.00,WUHU216DAVISVP2,2013-01-03 23:55:00,
2013-01-03 18:56:00,30.0,23.7,29.38,WNW,291,8.0,19.0,77,0.00,,,0.00,WUHU216DAVISVP2,2013-01-03 23:56:00,
2013-01-03 18:57:00,30.0,23.7,29.38,NW,310,6.0,19.0,77,0.00,,,0.00,WUHU216DAVISVP2,2013-01-03 23:57:00,
2013-01-03 18:58:00,30.0,23.7,29.38,West,274,7.0,19.0,77,0.00,,,0.00,WUHU216DAVISVP2,2013-01-03 23:58:00,
2013-01-03 19:00:00,30.0,23.7,29.39,WNW,299,12.0,19.0,77,0.00,,,0.00,WUHU216DAVISVP2,2013-01-04 00:00:00,
2013-01-03 19:01:00,30.0,23.7,29.38,West,277,7.0,19.0,77,0.00,,,0.00,WUHU216DAVISVP2,2013-01-04 00:01:00,
2013-01-03 19:02:00,30.0,24.0,29.39,West,276,9.0,16.0,78,0.00,,,0.00,WUHU216DAVISVP2,2013-01-04 00:02:00,
2013-01-03 19:03:00,30.0,24.0,29.38,West,280,12.0,16.0,78,0.00,,,0.00,WUHU216DAVISVP2,2013-01-04 00:03:00,
2013-01-03 19:05:00,30.0,24.0,29.39,WNW,298,9.0,16.0,78,0.00,,,0.00,WUHU216DAVISVP2,2013-01-04 00:05:00,
2013-01-03 19:06:00,30.0,24.0,29.39,West,279,8.0,16.0,78,0.00,,,0.00,WUHU216DAVISVP2,2013-01-04 00:06:00,
2013-01-03 19:07:00,30.0,24.0,29.39,West,276,6.0,16.0,78,0.00,,,0.00,WUHU216DAVISVP2,2013-01-04 00:07:00,
2013-01-03 19:08:00,30.0,24.0,29.39,WNW,294,12.0,16.0,78,0.00,,,0.00,WUHU216DAVISVP2,2013-01-04 00:08:00,
2013-01-03 19:10:00,30.1,24.1,29.39,West,276,11.0,18.0,78,0.00,,,0.00,WUHU216DAVISVP2,2013-01-04 00:10:00,
2013-01-03 19:11:00,30.1,24.1,29.39,WNW,285,9.0,18.0,78,0.00,,,0.00,WUHU216DAVISVP2,2013-01-04 00:11:00,
2013-01-03 19:12:00,30.1,24.1,29.39,WNW,285,10.0,18.0,78,0.00,,,0.00,WUHU216DAVISVP2,2013-01-04 00:12:00,
2013-01-03 19:13:00,30.1,24.1,29.38,WNW,289,9.0,18.0,78,0.00,,,0.00,WUHU216DAVISVP2,2013-01-04 00:13:00,
2013-01-03 19:15:00,30.0,24.0,29.39,WNW,293,8.0,18.0,78,0.00,,,0.00,WUHU216DAVISVP2,2013-01-04 00:15:00,
2013-01-03 19:17:00,30.0,24.0,29.39,West,263,11.0,18.0,78,0.00,,,0.00,WUHU216DAVISVP2,2013-01-04 00:17:00,
2013-01-03 19:18:00,30.0,24.0,29.39,WNW,285,11.0,18.0,78,0.00,,,0.00,WUHU216DAVISVP2,2013-01-04 00:18:00,
2013-01-03 19:20:00,30.0,24.0,29.39,WNW,287,11.0,18.0,78,0.00,,,0.00,WUHU216DAVISVP2,2013-01-04 00:20:00,
2013-01-03 19:22:00,30.0,24.0,29.39,West,281,8.0,18.0,78,0.00,,,0.00,WUHU216DAVISVP2,2013-01-04 00:22:00,
2013-01-03 19:23:00,30.0,24.0,29.39,WNW,284,11.0,18.0,78,0.00,,,0.00,WUHU216DAVISVP2,2013-01-04 00:23:00,
2013-01-03 19:25:00,30.0,24.0,29.39,WNW,289,11.0,18.0,78,0.00,,,0.00,WUHU216DAVISVP2,2013-01-04 00:25:00,
2013-01-03 19:27:00,30.0,24.0,29.39,West,278,6.0,18.0,78,0.00,,,0.00,WUHU216DAVISVP2,2013-01-04 00:27:00,
2013-01-03 19:29:00,30.0,24.0,29.39,WNW,282,8.0,14.0,78,0.00,,,0.00,WUHU216DAVISVP2,2013-01-04 00:29:00,
2013-01-03 19:31:00,30.0,24.0,29.39,West,273,6.0,14.0,78,0.00,,,0.00,WUHU216DAVISVP2,2013-01-04 00:31:00,
2013-01-03 19:32:00,30.0,24.0,29.39,West,272,11.0,14.0,78,0.00,,,0.00,WUHU216DAVISVP2,2013-01-04 00:32:00,
2013-01-03 19:33:00,30.0,24.0,29.39,WNW,291,13.0,15.0,78,0.00,,,0.00,WUHU216DAVISVP2,2013-01-04 00:33:00,
2013-01-03 19:34:00,30.0,24.0,29.39,West,272,5.0,15.0,78,0.00,,,0.00,WUHU216DAVISVP2,2013-01-04 00:34:00,
2013-01-03 19:36:00,30.0,24.3,29.39,West,272,7.0,15.0,79,0.00,,,0.00,WUHU216DAVISVP2,2013-01-04 00:36:00,
2013-01-03 19:37:00,30.0,24.3,29.39,West,265,8.0,15.0,79,0.00,,,0.00,WUHU216DAVISVP2,2013-01-04 00:37:00,
2013-01-03 19:38:00,30.0,24.3,29.39,WNW,287,14.0,15.0,79,0.00,,,0.00,WUHU216DAVISVP2,2013-01-04 00:38:00,
2013-01-03 19:39:00,30.0,24.3,29.39,West,273,9.0,15.0,79,0.00,,,0.00,WUHU216DAVISVP2,2013-01-04 00:39:00,
2013-01-03 19:41:00,30.0,24.3,29.39,WNW,282,9.0,16.0,79,0.00,,,0.00,WUHU216DAVISVP2,2013-01-04 00:41:00,
2013-01-03 19:42:00,30.0,24.0,29.39,WSW,258,8.0,16.0,78,0.00,,,0.00,WUHU216DAVISVP2,2013-01-04 00:42:00,
2013-01-03 19:43:00,30.0,24.0,29.39,WNW,300,6.0,16.0,78,0.00,,,0.00,WUHU216DAVISVP2,2013-01-04 00:43:00,
2013-01-03 19:44:00,30.0,24.0,29.39,WNW,288,6.0,16.0,78,0.00,,,0.00,WUHU216DAVISVP2,2013-01-04 00:44:00,
2013-01-03 19:46:00,30.0,24.0,29.40,WNW,295,8.0,16.0,78,0.00,,,0.00,WUHU216DAVISVP2,2013-01-04 00:46:00,
2013-01-03 19:47:00,30.0,24.0,29.40,WNW,285,7.0,16.0,78,0.00,,,0.00,WUHU216DAVISVP2,2013-01-04 00:47:00,
2013-01-03 19:48:00,29.9,23.9,29.39,West,275,14.0,16.0,78,0.00,,,0.00,WUHU216DAVISVP2,2013-01-04 00:48:00,
2013-01-03 19:49:00,30.0,24.0,29.39,WNW,294,11.0,16.0,78,0.00,,,0.00,WUHU216DAVISVP2,2013-01-04 00:49:00,
2013-01-03 19:52:00,30.0,24.0,29.40,West,280,13.0,16.0,78,0.00,,,0.00,WUHU216DAVISVP2,2013-01-04 00:52:00,
2013-01-03 19:53:00,30.0,24.0,29.39,NW,308,14.0,16.0,78,0.00,,,0.00,WUHU216DAVISVP2,2013-01-04 00:53:00,
2013-01-03 19:54:00,30.0,24.0,29.39,WNW,287,9.0,18.0,78,0.00,,,0.00,WUHU216DAVISVP2,2013-01-04 00:54:00,
2013-01-03 19:57:00,30.0,23.7,29.40,WNW,294,10.0,19.0,77,0.00,,,0.00,WUHU216DAVISVP2,2013-01-04 00:57:00,
2013-01-03 19:58:00,30.0,23.7,29.39,WSW,255,11.0,19.0,77,0.00,,,0.00,WUHU216DAVISVP2,2013-01-04 00:58:00,
2013-01-03 20:00:00,30.0,23.7,29.40,NW,308,13.0,19.0,77,0.00,,,0.00,WUHU216DAVISVP2,2013-01-04 01:00:00,
2013-01-03 20:02:00,30.0,23.7,29.40,WNW,301,15.0,19.0,77,0.00,,,0.00,WUHU216DAVISVP2,2013-01-04 01:02:00,
2013-01-03 20:03:00,30.0,23.7,29.40,WNW,290,15.0,19.0,77,0.00,,,0.00,WUHU216DAVISVP2,2013-01-04 01:03:00,
2013-01-03 20:05:00,30.0,23.7,29.39,WNW,287,11.0,19.0,77,0.00,,,0.00,WUHU216DAVISVP2,2013-01-04 01:05:00,
2013-01-03 20:07:00,30.0,23.7,29.40,WNW,291,9.0,19.0,77,0.00,,,0.00,WUHU216DAVISVP2,2013-01-04 01:07:00,
2013-01-03 20:08:00,29.9,23.6,29.40,WNW,303,10.0,19.0,77,0.00,,,0.00,WUHU216DAVISVP2,2013-01-04 01:08:00,
2013-01-03 20:10:00,29.9,23.6,29.40,WNW,294,12.0,19.0,77,0.00,,,0.00,WUHU216DAVISVP2,2013-01-04 01:10:00,
2013-01-03 20:12:00,29.9,23.3,29.40,West,274,9.0,19.0,76,0.00,,,0.00,WUHU216DAVISVP2,2013-01-04 01:12:00,
2013-01-03 20:13:00,29.8,23.2,29.40,WNW,297,19.0,20.0,76,0.00,,,0.00,WUHU216DAVISVP2,2013-01-04 01:13:00,
2013-01-03 20:15:00,29.9,23.3,29.40,WNW,285,10.0,20.0,76,0.00,,,0.00,WUHU216DAVISVP2,2013-01-04 01:15:00,
2013-01-03 20:17:00,29.8,22.9,29.40,WNW,283,13.0,20.0,75,0.00,,,0.00,WUHU216DAVISVP2,2013-01-04 01:17:00,
2013-01-03 20:18:00,29.8,22.9,29.39,WSW,251,11.0,20.0,75,0.00,,,0.00,WUHU216DAVISVP2,2013-01-04 01:18:00,
2013-01-03 20:19:00,29.8,22.9,29.40,West,277,10.0,20.0,75,0.00,,,0.00,WUHU216DAVISVP2,2013-01-04 01:19:00,
2013-01-03 20:20:00,29.8,22.9,29.39,WNW,297,11.0,20.0,75,0.00,,,0.00,WUHU216DAVISVP2,2013-01-04 01:20:00,
2013-01-03 20:22:00,29.7,22.8,29.40,West,281,12.0,23.0,75,0.00,,,0.00,WUHU216DAVISVP2,2013-01-04 01:22:00,
2013-01-03 20:23:00,29.7,22.8,29.40,WNW,301,12.0,23.0,75,0.00,,,0.00,WUHU216DAVISVP2,2013-01-04 01:23:00,
2013-01-03 20:24:00,29.7,22.8,29.40,West,278,9.0,23.0,75,0.00,,,0.00,WUHU216DAVISVP2,2013-01-04 01:24:00,
2013-01-03 20:25:00,29.7,22.8,29.40,West,278,13.0,23.0,75,0.00,,,0.00,WUHU216DAVISVP2,2013-01-04 01:25:00,
2013-01-03 20:27:00,29.6,22.7,29.40,WNW,300,8.0,23.0,75,0.00,,,0.00,WUHU216DAVISVP2,2013-01-04 01:27:00,
2013-01-03 20:29:00,29.6,22.7,29.40,WNW,300,14.0,23.0,75,0.00,,,0.00,WUHU216DAVISVP2,2013-01-04 01:29:00,
2013-01-03 20:30:00,29.6,22.7,29.40,West,271,16.0,23.0,75,0.00,,,0.00,WUHU216DAVISVP2,2013-01-04 01:30:00,
2013-01-03 20:33:00,29.5,22.6,29.40,WNW,284,10.0,23.0,75,0.00,,,0.00,WUHU216DAVISVP2,2013-01-04 01:33:00,
2013-01-03 20:34:00,29.5,22.6,29.40,WNW,299,12.0,23.0,75,0.00,,,0.00,WUHU216DAVISVP2,2013-01-04 01:34:00,
2013-01-03 20:35:00,29.4,22.5,29.40,West,280,10.0,23.0,75,0.00,,,0.00,WUHU216DAVISVP2,2013-01-04 01:35:00,
2013-01-03 20:38:00,29.4,22.5,29.40,WNW,288,13.0,23.0,75,0.00,,,0.00,WUHU216DAVISVP2,2013-01-04 01:38:00,
2013-01-03 20:39:00,29.4,22.5,29.40,WNW,283,8.0,23.0,75,0.00,,,0.00,WUHU216DAVISVP2,2013-01-04 01:39:00,
2013-01-03 20:41:00,29.3,22.4,29.40,West,275,11.0,22.0,75,0.00,,,0.00,WUHU216DAVISVP2,2013-01-04 01:41:00,
2013-01-03 20:43:00,29.3,22.4,29.40,WNW,285,7.0,22.0,75,0.00,,,0.00,WUHU216DAVISVP2,2013-01-04 01:43:00,
2013-01-03 20:44:00,29.2,22.3,29.40,WNW,283,8.0,21.0,75,0.00,,,0.00,WUHU216DAVISVP2,2013-01-04 01:44:00,
2013-01-03 20:46:00,29.2,22.6,29.40,WNW,284,8.0,21.0,76,0.00,,,0.00,WUHU216DAVISVP2,2013-01-04 01:46:00,
2013-01-03 20:48:00,29.2,22.6,29.40,WNW,297,10.0,21.0,76,0.00,,,0.00,WUHU216DAVISVP2,2013-01-04 01:48:00,
2013-01-03 20:49:00,29.1,22.5,29.40,WNW,301,14.0,18.0,76,0.00,,,0.00,WUHU216DAVISVP2,2013-01-04 01:49:00,
2013-01-03 20:51:00,29.1,22.5,29.40,WNW,289,8.0,18.0,76,0.00,,,0.00,WUHU216DAVISVP2,2013-01-04 01:51:00,
2013-01-03 20:53:00,29.0,22.4,29.41,WNW,291,9.0,18.0,76,0.00,,,0.00,WUHU216DAVISVP2,2013-01-04 01:53:00,
2013-01-03 20:54:00,29.0,22.4,29.41,West,278,13.0,18.0,76,0.00,,,0.00,WUHU216DAVISVP2,2013-01-04 01:54:00,
2013-01-03 20:55:00,29.0,22.4,29.41,West,278,13.0,18.0,76,0.00,,,0.00,WUHU216DAVISVP2,2013-01-04 01:55:00,
2013-01-03 20:56:00,29.0,22.4,29.40,West,278,14.0,18.0,76,0.00,,,0.00,WUHU216DAVISVP2,2013-01-04 01:56:00,
2013-01-03 20:58:00,28.9,22.3,29.40,West,281,6.0,19.0,76,0.00,,,0.00,WUHU216DAVISVP2,2013-01-04 01:58:00,
2013-01-03 21:00:00,28.9,22.3,29.40,West,276,8.0,19.0,76,0.00,,,0.00,WUHU216DAVISVP2,2013-01-04 02:00:00,
2013-01-03 21:01:00,28.9,22.3,29.40,West,279,13.0,19.0,76,0.00,,,0.00,WUHU216DAVISVP2,2013-01-04 02:01:00,
2013-01-03 21:03:00,28.8,22.2,29.40,West,270,8.0,19.0,76,0.00,,,0.00,WUHU216DAVISVP2,2013-01-04 02:03:00,
2013-01-03 21:05:00,28.8,22.2,29.40,WNW,284,10.0,19.0,76,0.00,,,0.00,WUHU216DAVISVP2,2013-01-04 02:05:00,
2013-01-03 21:06:00,28.8,22.2,29.40,WNW,282,10.0,19.0,76,0.00,,,0.00,WUHU216DAVISVP2,2013-01-04 02:06:00,
2013-01-03 21:09:00,28.8,22.2,29.40,WNW,290,7.0,19.0,76,0.00,,,0.00,WUHU216DAVISVP2,2013-01-04 02:09:00,
2013-01-03 21:10:00,28.7,22.1,29.40,WNW,298,10.0,19.0,76,0.00,,,0.00,WUHU216DAVISVP2,2013-01-04 02:10:00,
2013-01-03 21:11:00,28.7,22.1,29.40,West,274,9.0,19.0,76,0.00,,,0.00,WUHU216DAVISVP2,2013-01-04 02:11:00,
2013-01-03 21:14:00,28.7,22.1,29.40,WNW,285,10.0,19.0,76,0.00,,,0.00,WUHU216DAVISVP2,2013-01-04 02:14:00,
2013-01-03 21:15:00,28.7,22.1,29.41,WNW,291,7.0,19.0,76,0.00,,,0.00,WUHU216DAVISVP2,2013-01-04 02:15:00,
2013-01-03 21:16:00,28.6,22.0,29.40,WNW,285,9.0,19.0,76,0.00,,,0.00,WUHU216DAVISVP2,2013-01-04 02:16:00,
2013-01-03 21:19:00,28.6,22.0,29.41,WNW,294,11.0,18.0,76,0.00,,,0.00,WUHU216DAVISVP2,2013-01-04 02:19:00,
2013-01-03 21:20:00,28.5,21.9,29.41,WNW,298,16.0,18.0,76,0.00,,,0.00,WUHU216DAVISVP2,2013-01-04 02:20:00,
2013-01-03 21:21:00,28.5,21.9,29.40,WNW,289,9.0,18.0,76,0.00,,,0.00,WUHU216DAVISVP2,2013-01-04 02:21:00,
2013-01-03 21:24:00,28.4,21.8,29.40,West,274,14.0,18.0,76,0.00,,,0.00,WUHU216DAVISVP2,2013-01-04 02:24:00,
2013-01-03 21:25:00,28.4,21.8,29.40,WNW,295,11.0,18.0,76,0.00,,,0.00,WUHU216DAVISVP2,2013-01-04 02:25:00,
2013-01-03 21:26:00,28.4,21.8,29.40,WNW,303,11.0,18.0,76,0.00,,,0.00,WUHU216DAVISVP2,2013-01-04 02:26:00,
2013-01-03 21:29:00,28.2,21.9,29.41,WNW,285,6.0,18.0,77,0.00,,,0.00,WUHU216DAVISVP2,2013-01-04 02:29:00,
2013-01-03 21:30:00,28.2,21.9,29.41,WNW,295,10.0,18.0,77,0.00,,,0.00,WUHU216DAVISVP2,2013-01-04 02:30:00,
2013-01-03 21:31:00,28.2,21.9,29.40,WNW,292,10.0,18.0,77,0.00,,,0.00,WUHU216DAVISVP2,2013-01-04 02:31:00,
2013-01-03 21:32:00,28.1,21.8,29.40,WNW,288,8.0,18.0,77,0.00,,,0.00,WUHU216DAVISVP2,2013-01-04 02:32:00,
2013-01-03 21:34:00,28.0,21.7,29.40,WNW,285,6.0,18.0,77,0.00,,,0.00,WUHU216DAVISVP2,2013-01-04 02:34:00,
2013-01-03 21:36:00,27.9,21.6,29.40,West,270,12.0,16.0,77,0.00,,,0.00,WUHU216DAVISVP2,2013-01-04 02:36:00,
2013-01-03 21:37:00,27.9,21.6,29.40,WNW,303,10.0,16.0,77,0.00,,,0.00,WUHU216DAVISVP2,2013-01-04 02:37:00,
2013-01-03 21:39:00,27.8,21.6,29.41,West,278,9.0,14.0,77,0.00,,,0.00,WUHU216DAVISVP2,2013-01-04 02:39:00,
2013-01-03 21:41:00,27.7,21.5,29.41,WNW,289,6.0,14.0,77,0.00,,,0.00,WUHU216DAVISVP2,2013-01-04 02:41:00,
2013-01-03 21:42:00,27.6,21.4,29.41,West,273,7.0,14.0,77,0.00,,,0.00,WUHU216DAVISVP2,2013-01-04 02:42:00,
2013-01-03 21:45:00,27.4,21.2,29.41,WNW,284,6.0,14.0,77,0.00,,,0.00,WUHU216DAVISVP2,2013-01-04 02:45:00,
2013-01-03 21:46:00,27.4,21.2,29.41,WNW,285,7.0,14.0,77,0.00,,,0.00,WUHU216DAVISVP2,2013-01-04 02:46:00,
2013-01-03 21:47:00,27.3,21.1,29.41,WNW,296,8.0,14.0,77,0.00,,,0.00,WUHU216DAVISVP2,2013-01-04 02:47:00,
2013-01-03 21:50:00,27.1,20.9,29.41,WNW,294,8.0,14.0,77,0.00,,,0.00,WUHU216DAVISVP2,2013-01-04 02:50:00,
2013-01-03 21:51:00,27.0,20.8,29.41,WNW,283,7.0,14.0,77,0.00,,,0.00,WUHU216DAVISVP2,2013-01-04 02:51:00,
2013-01-03 21:52:00,27.0,20.8,29.41,West,277,7.0,14.0,77,0.00,,,0.00,WUHU216DAVISVP2,2013-01-04 02:52:00,
2013-01-03 21:55:00,26.9,21.0,29.41,West,275,7.0,14.0,78,0.00,,,0.00,WUHU216DAVISVP2,2013-01-04 02:55:00,
2013-01-03 21:57:00,26.7,20.5,29.41,WNW,282,8.0,14.0,77,0.00,,,0.00,WUHU216DAVISVP2,2013-01-04 02:57:00,
2013-01-03 21:58:00,26.7,20.5,29.41,WNW,302,9.0,14.0,77,0.00,,,0.00,WUHU216DAVISVP2,2013-01-04 02:58:00,
2013-01-03 22:00:00,26.6,20.7,29.41,West,274,8.0,14.0,78,0.00,,,0.00,WUHU216DAVISVP2,2013-01-04 03:00:00,
2013-01-03 22:02:00,26.5,20.6,29.41,West,279,9.0,14.0,78,0.00,,,0.00,WUHU216DAVISVP2,2013-01-04 03:02:00,
2013-01-03 22:03:00,26.4,20.5,29.41,WNW,295,6.0,14.0,78,0.00,,,0.00,WUHU216DAVISVP2,2013-01-04 03:03:00,
2013-01-03 22:05:00,26.3,20.4,29.41,WNW,292,8.0,14.0,78,0.00,,,0.00,WUHU216DAVISVP2,2013-01-04 03:05:00,
2013-01-03 22:07:00,26.2,20.3,29.41,West,272,6.0,14.0,78,0.00,,,0.00,WUHU216DAVISVP2,2013-01-04 03:07:00,
2013-01-03 22:08:00,26.1,20.2,29.41,WNW,287,8.0,14.0,78,0.00,,,0.00,WUHU216DAVISVP2,2013-01-04 03:08:00,
2013-01-03 22:10:00,26.1,20.2,29.41,WNW,287,6.0,14.0,78,0.00,,,0.00,WUHU216DAVISVP2,2013-01-04 03:10:00,
2013-01-03 22:12:00,26.0,20.1,29.41,West,260,10.0,13.0,78,0.00,,,0.00,WUHU216DAVISVP2,2013-01-04 03:12:00,
2013-01-03 22:13:00,26.0,20.1,29.41,West,274,11.0,14.0,78,0.00,,,0.00,WUHU216DAVISVP2,2013-01-04 03:13:00,
2013-01-03 22:15:00,26.0,20.1,29.41,WNW,283,9.0,14.0,78,0.00,,,0.00,WUHU216DAVISVP2,2013-01-04 03:15:00,
2013-01-03 22:17:00,25.9,20.0,29.41,WNW,293,11.0,14.0,78,0.00,,,0.00,WUHU216DAVISVP2,2013-01-04 03:17:00,
2013-01-03 22:18:00,25.9,20.0,29.41,WNW,290,7.0,14.0,78,0.00,,,0.00,WUHU216DAVISVP2,2013-01-04 03:18:00,
2013-01-03 22:20:00,25.8,19.9,29.41,WNW,291,9.0,14.0,78,0.00,,,0.00,WUHU216DAVISVP2,2013-01-04 03:20:00,
2013-01-03 22:22:00,25.8,19.9,29.41,West,263,7.0,14.0,78,0.00,,,0.00,WUHU216DAVISVP2,2013-01-04 03:22:00,
2013-01-03 22:23:00,25.8,19.9,29.41,West,274,8.0,14.0,78,0.00,,,0.00,WUHU216DAVISVP2,2013-01-04 03:23:00,
2013-01-03 22:26:00,25.7,19.8,29.41,West,269,9.0,14.0,78,0.00,,,0.00,WUHU216DAVISVP2,2013-01-04 03:26:00,
2013-01-03 22:28:00,25.6,19.7,29.41,WNW,302,9.0,14.0,78,0.00,,,0.00,WUHU216DAVISVP2,2013-01-04 03:28:00,
2013-01-03 22:31:00,25.5,19.6,29.41,WNW,284,8.0,13.0,78,0.00,,,0.00,WUHU216DAVISVP2,2013-01-04 03:31:00,
2013-01-03 22:33:00,25.4,19.5,29.41,West,268,9.0,12.0,78,0.00,,,0.00,WUHU216DAVISVP2,2013-01-04 03:33:00,
2013-01-03 22:34:00,25.4,19.5,29.41,WNW,285,9.0,12.0,78,0.00,,,0.00,WUHU216DAVISVP2,2013-01-04 03:34:00,
2013-01-03 22:36:00,25.4,19.5,29.41,West,269,5.0,12.0,78,0.00,,,0.00,WUHU216DAVISVP2,2013-01-04 03:36:00,
2013-01-03 22:38:00,25.3,19.4,29.41,West,273,5.0,12.0,78,0.00,,,0.00,WUHU216DAVISVP2,2013-01-04 03:38:00,
2013-01-03 22:39:00,25.2,19.3,29.41,West,274,7.0,12.0,78,0.00,,,0.00,WUHU216DAVISVP2,2013-01-04 03:39:00,
2013-01-03 22:41:00,25.2,19.3,29.41,West,259,7.0,11.0,78,0.00,,,0.00,WUHU216DAVISVP2,2013-01-04 03:41:00,
2013-01-03 22:43:00,25.1,19.2,29.41,West,270,9.0,11.0,78,0.00,,,0.00,WUHU216DAVISVP2,2013-01-04 03:43:00,
2013-01-03 22:44:00,25.1,19.2,29.41,WNW,285,7.0,11.0,78,0.00,,,0.00,WUHU216DAVISVP2,2013-01-04 03:44:00,
2013-01-03 22:46:00,25.1,19.2,29.41,West,274,5.0,11.0,78,0.00,,,0.00,WUHU216DAVISVP2,2013-01-04 03:46:00,
2013-01-03 22:48:00,25.0,19.1,29.41,West,266,7.0,11.0,78,0.00,,,0.00,WUHU216DAVISVP2,2013-01-04 03:48:00,
2013-01-03 22:49:00,25.0,19.1,29.41,West,278,6.0,11.0,78,0.00,,,0.00,WUHU216DAVISVP2,2013-01-04 03:49:00,
2013-01-03 22:51:00,24.9,19.0,29.41,West,267,7.0,10.0,78,0.00,,,0.00,WUHU216DAVISVP2,2013-01-04 03:51:00,
2013-01-03 22:53:00,24.9,19.0,29.41,West,261,6.0,10.0,78,0.00,,,0.00,WUHU216DAVISVP2,2013-01-04 03:53:00,
2013-01-03 22:54:00,24.9,19.0,29.41,West,274,8.0,10.0,78,0.00,,,0.00,WUHU216DAVISVP2,2013-01-04 03:54:00,
2013-01-03 22:56:00,24.9,19.3,29.41,West,271,5.0,10.0,79,0.00,,,0.00,WUHU216DAVISVP2,2013-01-04 03:56:00,
2013-01-03 22:58:00,24.8,19.2,29.41,West,273,6.0,10.0,79,0.00,,,0.00,WUHU216DAVISVP2,2013-01-04 03:58:00,
2013-01-03 22:59:00,24.8,19.2,29.41,WSW,257,7.0,10.0,79,0.00,,,0.00,WUHU216DAVISVP2,2013-01-04 03:59:00,
2013-01-03 23:00:00,24.8,19.2,29.41,West,267,6.0,10.0,79,0.00,,,0.00,WUHU216DAVISVP2,2013-01-04 04:00:00,
2013-01-03 23:01:00,24.8,19.2,29.41,WNW,287,4.0,10.0,79,0.00,,,0.00,WUHU216DAVISVP2,2013-01-04 04:01:00,
2013-01-03 23:03:00,24.7,19.1,29.41,West,279,7.0,10.0,79,0.00,,,0.00,WUHU216DAVISVP2,2013-01-04 04:03:00,
2013-01-03 23:04:00,24.7,19.1,29.41,WNW,283,5.0,10.0,79,0.00,,,0.00,WUHU216DAVISVP2,2013-01-04 04:04:00,
2013-01-03 23:05:00,24.7,19.1,29.41,West,268,7.0,10.0,79,0.00,,,0.00,WUHU216DAVISVP2,2013-01-04 04:05:00,
2013-01-03 23:07:00,24.5,18.9,29.41,West,278,7.0,10.0,79,0.00,,,0.00,WUHU216DAVISVP2,2013-01-04 04:07:00,
2013-01-03 23:08:00,24.5,18.9,29.41,West,278,6.0,10.0,79,0.00,,,0.00,WUHU216DAVISVP2,2013-01-04 04:08:00,
2013-01-03 23:09:00,24.5,18.9,29.41,West,269,5.0,10.0,79,0.00,,,0.00,WUHU216DAVISVP2,2013-01-04 04:09:00,
2013-01-03 23:10:00,24.5,18.9,29.42,WNW,291,5.0,10.0,79,0.00,,,0.00,WUHU216DAVISVP2,2013-01-04 04:10:00,
2013-01-03 23:12:00,24.5,18.9,29.42,West,270,7.0,11.0,79,0.00,,,0.00,WUHU216DAVISVP2,2013-01-04 04:12:00,
2013-01-03 23:13:00,24.4,19.1,29.41,WNW,287,7.0,11.0,80,0.00,,,0.00,WUHU216DAVISVP2,2013-01-04 04:13:00,
2013-01-03 23:14:00,24.4,19.1,29.41,West,281,7.0,11.0,80,0.00,,,0.00,WUHU216DAVISVP2,2013-01-04 04:14:00,
2013-01-03 23:15:00,24.4,19.1,29.41,West,262,7.0,11.0,80,0.00,,,0.00,WUHU216DAVISVP2,2013-01-04 04:15:00,
2013-01-03 23:17:00,24.4,19.1,29.41,West,275,10.0,11.0,80,0.00,,,0.00,WUHU216DAVISVP2,2013-01-04 04:17:00,
2013-01-03 23:18:00,24.3,19.0,29.41,West,273,4.0,11.0,80,0.00,,,0.00,WUHU216DAVISVP2,2013-01-04 04:18:00,
2013-01-03 23:19:00,24.3,19.0,29.41,West,278,8.0,11.0,80,0.00,,,0.00,WUHU216DAVISVP2,2013-01-04 04:19:00,
2013-01-03 23:21:00,24.3,19.0,29.41,WSW,256,9.0,11.0,80,0.00,,,0.00,WUHU216DAVISVP2,2013-01-04 04:21:00,
2013-01-03 23:22:00,24.3,19.0,29.41,West,266,8.0,11.0,80,0.00,,,0.00,WUHU216DAVISVP2,2013-01-04 04:22:00,
2013-01-03 23:23:00,24.3,19.0,29.41,West,266,7.0,11.0,80,0.00,,,0.00,WUHU216DAVISVP2,2013-01-04 04:23:00,
2013-01-03 23:24:00,24.3,19.0,29.41,WSW,252,8.0,11.0,80,0.00,,,0.00,WUHU216DAVISVP2,2013-01-04 04:24:00,
2013-01-03 23:26:00,24.2,18.9,29.41,West,261,4.0,11.0,80,0.00,,,0.00,WUHU216DAVISVP2,2013-01-04 04:26:00,
2013-01-03 23:27:00,24.2,18.9,29.41,West,278,6.0,11.0,80,0.00,,,0.00,WUHU216DAVISVP2,2013-01-04 04:27:00,
2013-01-03 23:28:00,24.2,18.9,29.42,West,266,8.0,11.0,80,0.00,,,0.00,WUHU216DAVISVP2,2013-01-04 04:28:00,
2013-01-03 23:30:00,24.2,18.9,29.42,WSW,255,8.0,11.0,80,0.00,,,0.00,WUHU216DAVISVP2,2013-01-04 04:30:00,
2013-01-03 23:31:00,24.2,18.9,29.41,West,268,7.0,11.0,80,0.00,,,0.00,WUHU216DAVISVP2,2013-01-04 04:31:00,
2013-01-03 23:32:00,24.1,18.8,29.41,WSW,256,7.0,11.0,80,0.00,,,0.00,WUHU216DAVISVP2,2013-01-04 04:32:00,
2013-01-03 23:34:00,24.1,18.8,29.41,WSW,256,8.0,11.0,80,0.00,,,0.00,WUHU216DAVISVP2,2013-01-04 04:34:00,
2013-01-03 23:35:00,24.1,18.8,29.41,WSW,257,9.0,11.0,80,0.00,,,0.00,WUHU216DAVISVP2,2013-01-04 04:35:00,
2013-01-03 23:36:00,24.0,18.7,29.41,West,266,7.0,12.0,80,0.00,,,0.00,WUHU216DAVISVP2,2013-01-04 04:36:00,
2013-01-03 23:38:00,24.0,18.7,29.41,West,275,10.0,13.0,80,0.00,,,0.00,WUHU216DAVISVP2,2013-01-04 04:38:00,
2013-01-03 23:39:00,24.0,18.7,29.41,WSW,258,6.0,13.0,80,0.00,,,0.00,WUHU216DAVISVP2,2013-01-04 04:39:00,
2013-01-03 23:40:00,24.0,18.7,29.41,West,270,8.0,13.0,80,0.00,,,0.00,WUHU216DAVISVP2,2013-01-04 04:40:00,
2013-01-03 23:41:00,24.0,18.7,29.41,WSW,256,11.0,13.0,80,0.00,,,0.00,WUHU216DAVISVP2,2013-01-04 04:41:00,
2013-01-03 23:43:00,24.0,18.7,29.41,West,260,6.0,13.0,80,0.00,,,0.00,WUHU216DAVISVP2,2013-01-04 04:43:00,
2013-01-03 23:44:00,24.0,18.7,29.41,West,261,8.0,13.0,80,0.00,,,0.00,WUHU216DAVISVP2,2013-01-04 04:44:00,
2013-01-03 23:45:00,24.0,18.7,29.41,West,260,8.0,13.0,80,0.00,,,0.00,WUHU216DAVISVP2,2013-01-04 04:45:00,
2013-01-03 23:46:00,24.0,18.7,29.41,West,268,7.0,13.0,80,0.00,,,0.00,WUHU216DAVISVP2,2013-01-04 04:46:00,
2013-01-03 23:48:00,24.0,18.7,29.41,WSW,256,13.0,13.0,80,0.00,,,0.00,WUHU216DAVISVP2,2013-01-04 04:48:00,
2013-01-03 23:49:00,24.0,18.7,29.41,West,271,5.0,16.0,80,0.00,,,0.00,WUHU216DAVISVP2,2013-01-04 04:49:00,
2013-01-03 23:50:00,24.0,18.7,29.41,West,281,7.0,16.0,80,0.00,,,0.00,WUHU216DAVISVP2,2013-01-04 04:50:00,
2013-01-03 23:51:00,24.0,18.7,29.41,WNW,291,7.0,16.0,80,0.00,,,0.00,WUHU216DAVISVP2,2013-01-04 04:51:00,
2013-01-03 23:53:00,24.0,18.7,29.41,West,264,7.0,16.0,80,0.00,,,0.00,WUHU216DAVISVP2,2013-01-04 04:53:00,
2013-01-03 23:55:00,24.0,18.7,29.41,West,281,10.0,16.0,80,0.00,,,0.00,WUHU216DAVISVP2,2013-01-04 04:55:00,
2013-01-03 23:56:00,24.0,18.7,29.41,West,275,10.0,16.0,80,0.00,,,0.00,WUHU216DAVISVP2,2013-01-04 04:56:00,
2013-01-03 23:58:00,24.0,18.4,29.41,WNW,283,7.0,16.0,79,0.00,,,0.00,WUHU216DAVISVP2,2013-01-04 04:58:00,